Time,TemperatureF,DewpointF,PressureIn,WindDirection,WindDirectionDegrees,WindSpeedMPH,WindSpeedGustMPH,Humidity,HourlyPrecipIn,Conditions,Clouds,dailyrainin,SoftwareType,DateUTC
2013-02-28 00:00:00,24.8,3.4,30.11,SSW,207,2.2,2.2,39,0.00,,---,0.00,VWS V14.01,2013-02-28 07:00:00,
2013-02-28 00:01:00,24.8,3.9,30.11,SSW,207,2.7,2.7,40,0.00,,---,0.00,VWS V14.01,2013-02-28 07:01:00,
2013-02-28 00:05:00,24.8,4.4,30.11,SSW,207,0.0,3.1,41,0.00,,---,0.00,VWS V14.01,2013-02-28 07:05:00,
2013-02-28 00:06:00,24.8,4.4,30.11,SW,234,3.1,3.1,41,0.00,,---,0.00,VWS V14.01,2013-02-28 07:06:00,
2013-02-28 00:10:00,25.0,3.5,30.11,SSW,200,3.1,4.0,39,0.00,,---,0.00,VWS V14.01,2013-02-28 07:10:00,
2013-02-28 00:11:00,25.2,3.7,30.11,South,189,3.1,5.4,39,0.00,,---,0.00,VWS V14.01,2013-02-28 07:11:00,
2013-02-28 00:15:00,25.3,3.9,30.09,SSW,194,3.1,4.9,39,0.00,,---,0.00,VWS V14.01,2013-02-28 07:15:00,
2013-02-28 00:16:00,25.5,4.0,30.09,South,185,3.6,4.9,39,0.00,,---,0.00,VWS V14.01,2013-02-28 07:16:00,
2013-02-28 00:20:00,25.7,4.2,30.09,SSW,194,4.0,5.4,39,0.00,,---,0.00,VWS V14.01,2013-02-28 07:20:00,
2013-02-28 00:21:00,25.7,4.2,30.09,SSW,195,4.9,5.4,39,0.00,,---,0.00,VWS V14.01,2013-02-28 07:21:00,
2013-02-28 00:22:00,25.7,4.2,30.09,SSW,196,3.6,5.4,39,0.00,,---,0.00,VWS V14.01,2013-02-28 07:22:00,
2013-02-28 00:25:00,25.9,4.3,30.09,South,184,3.6,5.8,39,0.00,,---,0.00,VWS V14.01,2013-02-28 07:25:00,
2013-02-28 00:26:00,25.9,3.8,30.09,SSW,193,3.1,5.8,38,0.00,,---,0.00,VWS V14.01,2013-02-28 07:26:00,
2013-02-28 00:27:00,25.9,3.8,30.09,SSW,198,3.1,5.8,38,0.00,,---,0.00,VWS V14.01,2013-02-28 07:27:00,
2013-02-28 00:30:00,25.9,3.8,30.09,SSW,194,3.6,3.6,38,0.00,,---,0.00,VWS V14.01,2013-02-28 07:30:00,
2013-02-28 00:31:00,25.7,3.6,30.09,SSW,194,3.1,3.6,38,0.00,,---,0.00,VWS V14.01,2013-02-28 07:31:00,
2013-02-28 00:32:00,25.7,3.6,30.09,SSW,193,3.1,3.6,38,0.00,,---,0.00,VWS V14.01,2013-02-28 07:32:00,
2013-02-28 00:35:00,25.5,3.5,30.09,SSW,196,2.7,4.9,38,0.00,,---,0.00,VWS V14.01,2013-02-28 07:35:00,
2013-02-28 00:36:00,25.5,3.5,30.09,SSW,195,3.1,4.9,38,0.00,,---,0.00,VWS V14.01,2013-02-28 07:36:00,
2013-02-28 00:37:00,25.5,3.5,30.09,SSW,197,5.4,5.4,38,0.00,,---,0.00,VWS V14.01,2013-02-28 07:37:00,
2013-02-28 00:40:00,25.3,3.3,30.09,SSW,197,3.1,5.4,38,0.00,,---,0.00,VWS V14.01,2013-02-28 07:40:00,
2013-02-28 00:41:00,25.3,3.3,30.09,SSW,197,2.7,5.4,38,0.00,,---,0.00,VWS V14.01,2013-02-28 07:41:00,
2013-02-28 00:42:00,25.3,3.3,30.09,SSW,197,3.1,5.4,38,0.00,,---,0.00,VWS V14.01,2013-02-28 07:42:00,
2013-02-28 00:45:00,25.3,3.3,30.09,SSW,194,3.1,3.1,38,0.00,,---,0.00,VWS V14.01,2013-02-28 07:45:00,
2013-02-28 00:46:00,25.2,3.1,30.09,SSW,193,3.1,4.0,38,0.00,,---,0.00,VWS V14.01,2013-02-28 07:46:00,
2013-02-28 00:47:00,25.2,3.1,30.09,SSW,193,4.0,4.0,38,0.00,,---,0.00,VWS V14.01,2013-02-28 07:47:00,
2013-02-28 00:50:00,25.0,3.0,30.09,SSW,197,4.0,4.9,38,0.00,,---,0.00,VWS V14.01,2013-02-28 07:50:00,
2013-02-28 00:52:00,25.0,3.0,30.09,SSW,197,3.6,5.4,38,0.00,,---,0.00,VWS V14.01,2013-02-28 07:52:00,
2013-02-28 00:55:00,24.8,3.4,30.09,SSW,197,4.0,5.4,39,0.00,,---,0.00,VWS V14.01,2013-02-28 07:55:00,
2013-02-28 00:57:00,24.8,2.8,30.09,SSW,197,5.8,5.8,38,0.00,,---,0.00,VWS V14.01,2013-02-28 07:57:00,
2013-02-28 01:00:00,24.8,2.8,30.09,SSW,193,4.5,5.4,38,0.00,,---,0.00,VWS V14.01,2013-02-28 08:00:00,
2013-02-28 01:02:00,24.6,3.2,30.09,SSW,195,2.7,5.4,39,0.00,,---,0.00,VWS V14.01,2013-02-28 08:02:00,
2013-02-28 01:06:00,24.4,3.0,30.09,SSW,197,3.1,5.4,39,0.00,,---,0.00,VWS V14.01,2013-02-28 08:06:00,
2013-02-28 01:07:00,24.4,3.0,30.09,SSW,197,2.2,5.4,39,0.00,,---,0.00,VWS V14.01,2013-02-28 08:07:00,
2013-02-28 01:11:00,24.4,3.0,30.09,SSW,197,3.1,5.4,39,0.00,,---,0.00,VWS V14.01,2013-02-28 08:11:00,
2013-02-28 01:12:00,24.4,3.0,30.09,SSW,195,4.0,5.4,39,0.00,,---,0.00,VWS V14.01,2013-02-28 08:12:00,
2013-02-28 01:13:00,24.4,3.0,30.09,SSW,198,4.0,5.4,39,0.00,,---,0.00,VWS V14.01,2013-02-28 08:13:00,
2013-02-28 01:16:00,24.6,3.2,30.09,SSW,196,4.0,4.9,39,0.00,,---,0.00,VWS V14.01,2013-02-28 08:16:00,
2013-02-28 01:17:00,24.8,3.4,30.09,SSW,196,4.0,4.9,39,0.00,,---,0.00,VWS V14.01,2013-02-28 08:17:00,
2013-02-28 01:18:00,24.8,3.4,30.09,SSW,198,5.4,5.4,39,0.00,,---,0.00,VWS V14.01,2013-02-28 08:18:00,
2013-02-28 01:21:00,25.0,3.0,30.09,SSW,196,2.7,5.4,38,0.00,,---,0.00,VWS V14.01,2013-02-28 08:21:00,
2013-02-28 01:22:00,25.0,3.0,30.09,SSW,195,3.1,5.4,38,0.00,,---,0.00,VWS V14.01,2013-02-28 08:22:00,
2013-02-28 01:23:00,25.0,3.0,30.09,SSW,195,4.0,5.4,38,0.00,,---,0.00,VWS V14.01,2013-02-28 08:23:00,
2013-02-28 01:26:00,25.0,3.0,30.09,South,186,3.6,5.4,38,0.00,,---,0.00,VWS V14.01,2013-02-28 08:26:00,
2013-02-28 01:27:00,25.0,3.0,30.09,SSW,197,3.6,5.4,38,0.00,,---,0.00,VWS V14.01,2013-02-28 08:27:00,
2013-02-28 01:28:00,25.0,3.0,30.09,South,189,4.0,5.4,38,0.00,,---,0.00,VWS V14.01,2013-02-28 08:28:00,
2013-02-28 01:31:00,25.0,3.0,30.09,SSW,199,5.4,5.8,38,0.00,,---,0.00,VWS V14.01,2013-02-28 08:31:00,
2013-02-28 01:32:00,25.0,3.0,30.09,SSW,198,5.4,5.8,38,0.00,,---,0.00,VWS V14.01,2013-02-28 08:32:00,
2013-02-28 01:33:00,25.0,3.0,30.09,SSW,192,5.4,5.8,38,0.00,,---,0.00,VWS V14.01,2013-02-28 08:33:00,
2013-02-28 01:34:00,25.0,3.0,30.09,South,191,5.8,5.8,38,0.00,,---,0.00,VWS V14.01,2013-02-28 08:34:00,
2013-02-28 01:36:00,25.0,3.0,30.09,SSW,196,4.9,6.3,38,0.00,,---,0.00,VWS V14.01,2013-02-28 08:36:00,
2013-02-28 01:37:00,25.0,3.0,30.09,SSW,195,4.9,6.3,38,0.00,,---,0.00,VWS V14.01,2013-02-28 08:37:00,
2013-02-28 01:38:00,25.0,3.0,30.09,South,190,4.0,6.3,38,0.00,,---,0.00,VWS V14.01,2013-02-28 08:38:00,
2013-02-28 01:39:00,25.0,3.0,30.09,SSW,196,3.6,6.3,38,0.00,,---,0.00,VWS V14.01,2013-02-28 08:39:00,
2013-02-28 01:42:00,25.2,3.1,30.09,SSW,192,4.0,6.3,38,0.00,,---,0.00,VWS V14.01,2013-02-28 08:42:00,
2013-02-28 01:43:00,25.2,3.1,30.09,SSW,196,4.0,6.3,38,0.00,,---,0.00,VWS V14.01,2013-02-28 08:43:00,
2013-02-28 01:44:00,25.3,3.3,30.09,SSW,197,4.9,6.3,38,0.00,,---,0.00,VWS V14.01,2013-02-28 08:44:00,
2013-02-28 01:47:00,25.3,2.7,30.09,South,186,3.6,5.8,37,0.00,,---,0.00,VWS V14.01,2013-02-28 08:47:00,
2013-02-28 01:48:00,25.3,2.7,30.09,SSW,198,3.6,5.8,37,0.00,,---,0.00,VWS V14.01,2013-02-28 08:48:00,
2013-02-28 01:49:00,25.3,2.7,30.09,SSW,196,4.9,5.8,37,0.00,,---,0.00,VWS V14.01,2013-02-28 08:49:00,
2013-02-28 01:52:00,25.5,2.9,30.09,SSW,193,6.3,8.1,37,0.00,,---,0.00,VWS V14.01,2013-02-28 08:52:00,
2013-02-28 01:53:00,25.5,2.9,30.09,SSW,202,5.8,8.1,37,0.00,,---,0.00,VWS V14.01,2013-02-28 08:53:00,
2013-02-28 01:54:00,25.5,2.9,30.09,SSW,194,5.8,8.1,37,0.00,,---,0.00,VWS V14.01,2013-02-28 08:54:00,
2013-02-28 01:57:00,25.5,2.9,30.09,SSW,203,3.1,8.3,37,0.00,,---,0.00,VWS V14.01,2013-02-28 08:57:00,
2013-02-28 01:58:00,25.5,2.9,30.09,SSW,203,2.7,8.3,37,0.00,,---,0.00,VWS V14.01,2013-02-28 08:58:00,
2013-02-28 01:59:00,25.5,2.9,30.09,SSW,199,5.8,8.3,37,0.00,,---,0.00,VWS V14.01,2013-02-28 08:59:00,
2013-02-28 02:02:00,25.5,2.9,30.09,SSW,194,4.9,6.3,37,0.00,,---,0.00,VWS V14.01,2013-02-28 09:02:00,
2013-02-28 02:03:00,25.7,3.0,30.09,SSW,196,5.4,6.3,37,0.00,,---,0.00,VWS V14.01,2013-02-28 09:03:00,
2013-02-28 02:04:00,25.7,2.5,30.09,South,190,3.6,6.3,36,0.00,,---,0.00,VWS V14.01,2013-02-28 09:04:00,
2013-02-28 02:07:00,25.9,2.6,30.09,SSW,200,4.0,6.3,36,0.00,,---,0.00,VWS V14.01,2013-02-28 09:07:00,
2013-02-28 02:08:00,25.9,2.6,30.09,SSW,199,4.0,6.3,36,0.00,,---,0.00,VWS V14.01,2013-02-28 09:08:00,
2013-02-28 02:09:00,26.1,2.8,30.09,SSW,198,2.2,6.3,36,0.00,,---,0.00,VWS V14.01,2013-02-28 09:09:00,
2013-02-28 02:13:00,26.1,2.8,30.09,SSW,197,2.2,6.3,36,0.00,,---,0.00,VWS V14.01,2013-02-28 09:13:00,
2013-02-28 02:15:00,26.1,2.8,30.09,SSW,197,2.2,2.2,36,0.00,,---,0.00,VWS V14.01,2013-02-28 09:15:00,
2013-02-28 02:18:00,25.9,2.6,30.09,SSW,197,0.0,2.2,36,0.00,,---,0.00,VWS V14.01,2013-02-28 09:18:00,
2013-02-28 02:19:00,25.7,2.5,30.09,SSW,197,0.0,2.2,36,0.00,,---,0.00,VWS V14.01,2013-02-28 09:19:00,
2013-02-28 02:20:00,25.7,2.5,30.09,SSW,193,2.2,2.2,36,0.00,,---,0.00,VWS V14.01,2013-02-28 09:20:00,
2013-02-28 02:23:00,25.3,2.7,30.09,SSW,193,0.0,2.7,37,0.00,,---,0.00,VWS V14.01,2013-02-28 09:23:00,
2013-02-28 02:24:00,25.3,2.7,30.09,SSW,192,2.2,2.7,37,0.00,,---,0.00,VWS V14.01,2013-02-28 09:24:00,
2013-02-28 02:25:00,25.2,2.6,30.09,South,191,2.7,2.7,37,0.00,,---,0.00,VWS V14.01,2013-02-28 09:25:00,
2013-02-28 02:28:00,25.0,3.0,30.09,South,183,2.2,2.7,38,0.00,,---,0.00,VWS V14.01,2013-02-28 09:28:00,
2013-02-28 02:29:00,25.0,3.0,30.09,South,182,2.2,3.1,38,0.00,,---,0.00,VWS V14.01,2013-02-28 09:29:00,
2013-02-28 02:31:00,25.0,3.0,30.09,South,182,0.0,2.7,38,0.00,,---,0.00,VWS V14.01,2013-02-28 09:31:00,
2013-02-28 02:33:00,24.8,2.8,30.09,South,182,2.7,2.7,38,0.00,,---,0.00,VWS V14.01,2013-02-28 09:33:00,
2013-02-28 02:34:00,24.6,2.7,30.09,South,182,2.7,2.7,38,0.00,,---,0.00,VWS V14.01,2013-02-28 09:34:00,
2013-02-28 02:36:00,24.6,2.7,30.09,South,182,0.0,2.7,38,0.00,,---,0.00,VWS V14.01,2013-02-28 09:36:00,
2013-02-28 02:38:00,24.4,2.5,30.09,South,182,0.0,2.7,38,0.00,,---,0.00,VWS V14.01,2013-02-28 09:38:00,
2013-02-28 02:39:00,24.4,2.5,30.09,South,182,0.0,2.7,38,0.00,,---,0.00,VWS V14.01,2013-02-28 09:39:00,
2013-02-28 02:41:00,24.4,2.5,30.09,South,182,0.0,2.7,38,0.00,,---,0.00,VWS V14.01,2013-02-28 09:41:00,
2013-02-28 02:43:00,24.4,2.5,30.09,South,182,0.0,2.7,38,0.00,,---,0.00,VWS V14.01,2013-02-28 09:43:00,
2013-02-28 02:44:00,24.4,3.0,30.09,South,182,0.0,2.7,39,0.00,,---,0.00,VWS V14.01,2013-02-28 09:44:00,
2013-02-28 02:46:00,24.4,3.0,30.09,South,182,0.0,0.0,39,0.00,,---,0.00,VWS V14.01,2013-02-28 09:46:00,
2013-02-28 02:48:00,24.4,3.0,30.09,South,182,2.2,2.7,39,0.00,,---,0.00,VWS V14.01,2013-02-28 09:48:00,
2013-02-28 02:49:00,24.4,3.0,30.09,South,182,0.0,2.7,39,0.00,,---,0.00,VWS V14.01,2013-02-28 09:49:00,
2013-02-28 02:51:00,24.4,3.0,30.09,South,182,0.0,2.7,39,0.00,,---,0.00,VWS V14.01,2013-02-28 09:51:00,
2013-02-28 02:53:00,24.4,3.0,30.09,South,182,0.0,2.7,39,0.00,,---,0.00,VWS V14.01,2013-02-28 09:53:00,
2013-02-28 02:54:00,24.6,3.2,30.09,South,182,0.0,2.7,39,0.00,,---,0.00,VWS V14.01,2013-02-28 09:54:00,
2013-02-28 02:55:00,24.6,3.2,30.09,South,182,0.0,2.7,39,0.00,,---,0.00,VWS V14.01,2013-02-28 09:55:00,
2013-02-28 02:56:00,24.6,3.8,30.09,South,182,2.7,2.7,40,0.00,,---,0.00,VWS V14.01,2013-02-28 09:56:00,
2013-02-28 02:59:00,24.6,3.2,30.09,South,182,2.2,2.7,39,0.00,,---,0.00,VWS V14.01,2013-02-28 09:59:00,
2013-02-28 03:00:00,24.8,3.4,30.09,South,182,0.0,2.7,39,0.00,,---,0.00,VWS V14.01,2013-02-28 10:00:00,
2013-02-28 03:01:00,25.0,3.5,30.09,South,185,2.7,2.7,39,0.00,,---,0.00,VWS V14.01,2013-02-28 10:01:00,
2013-02-28 03:04:00,25.2,3.1,30.09,South,185,2.2,2.7,38,0.00,,---,0.00,VWS V14.01,2013-02-28 10:04:00,
2013-02-28 03:05:00,25.2,3.1,30.09,South,185,2.7,2.7,38,0.00,,---,0.00,VWS V14.01,2013-02-28 10:05:00,
2013-02-28 03:06:00,25.3,3.3,30.09,South,191,2.7,3.1,38,0.00,,---,0.00,VWS V14.01,2013-02-28 10:06:00,
2013-02-28 03:09:00,25.5,3.5,30.09,South,191,2.2,3.1,38,0.00,,---,0.00,VWS V14.01,2013-02-28 10:09:00,
2013-02-28 03:10:00,25.7,3.6,30.09,SSW,192,0.0,3.1,38,0.00,,---,0.00,VWS V14.01,2013-02-28 10:10:00,
2013-02-28 03:12:00,26.1,3.9,30.09,South,191,0.0,3.1,38,0.00,,---,0.00,VWS V14.01,2013-02-28 10:12:00,
2013-02-28 03:14:00,26.4,4.3,30.09,South,191,0.0,3.1,38,0.00,,---,0.00,VWS V14.01,2013-02-28 10:14:00,
2013-02-28 03:15:00,26.6,4.4,30.09,South,191,0.0,0.0,38,0.00,,---,0.00,VWS V14.01,2013-02-28 10:15:00,
2013-02-28 03:17:00,26.8,4.6,30.09,South,191,0.0,0.0,38,0.00,,---,0.00,VWS V14.01,2013-02-28 10:17:00,
2013-02-28 03:19:00,26.8,4.0,30.09,South,191,0.0,0.0,37,0.00,,---,0.00,VWS V14.01,2013-02-28 10:19:00,
2013-02-28 03:20:00,26.8,4.0,30.09,South,191,0.0,0.0,37,0.00,,---,0.00,VWS V14.01,2013-02-28 10:20:00,
2013-02-28 03:22:00,26.8,4.0,30.09,South,191,0.0,0.0,37,0.00,,---,0.00,VWS V14.01,2013-02-28 10:22:00,
2013-02-28 03:24:00,26.8,4.0,30.09,South,191,0.0,0.0,37,0.00,,---,0.00,VWS V14.01,2013-02-28 10:24:00,
2013-02-28 03:25:00,26.8,4.0,30.09,South,191,0.0,0.0,37,0.00,,---,0.00,VWS V14.01,2013-02-28 10:25:00,
2013-02-28 03:27:00,26.6,3.8,30.09,South,191,0.0,0.0,37,0.00,,---,0.00,VWS V14.01,2013-02-28 10:27:00,
2013-02-28 03:29:00,26.4,4.3,30.09,South,191,0.0,0.0,38,0.00,,---,0.00,VWS V14.01,2013-02-28 10:29:00,
2013-02-28 03:30:00,26.4,4.3,30.09,South,191,0.0,0.0,38,0.00,,---,0.00,VWS V14.01,2013-02-28 10:30:00,
2013-02-28 03:32:00,26.2,4.1,30.09,South,191,0.0,0.0,38,0.00,,---,0.00,VWS V14.01,2013-02-28 10:32:00,
2013-02-28 03:35:00,26.2,4.1,30.09,South,191,0.0,0.0,38,0.00,,---,0.00,VWS V14.01,2013-02-28 10:35:00,
2013-02-28 03:38:00,26.2,4.1,30.09,South,191,0.0,0.0,38,0.00,,---,0.00,VWS V14.01,2013-02-28 10:38:00,
2013-02-28 03:40:00,26.1,3.9,30.09,South,191,0.0,0.0,38,0.00,,---,0.00,VWS V14.01,2013-02-28 10:40:00,
2013-02-28 03:43:00,26.1,3.9,30.09,South,191,0.0,0.0,38,0.00,,---,0.00,VWS V14.01,2013-02-28 10:43:00,
2013-02-28 03:45:00,26.1,3.9,30.06,South,191,0.0,0.0,38,0.00,,---,0.00,VWS V14.01,2013-02-28 10:45:00,
2013-02-28 03:48:00,26.1,3.9,30.06,South,191,0.0,0.0,38,0.00,,---,0.00,VWS V14.01,2013-02-28 10:48:00,
2013-02-28 03:50:00,26.1,3.9,30.06,South,191,2.2,2.2,38,0.00,,---,0.00,VWS V14.01,2013-02-28 10:50:00,
2013-02-28 03:53:00,26.2,3.5,30.06,South,191,2.7,2.7,37,0.00,,---,0.00,VWS V14.01,2013-02-28 10:53:00,
2013-02-28 03:55:00,26.4,3.7,30.06,South,191,0.0,2.7,37,0.00,,---,0.00,VWS V14.01,2013-02-28 10:55:00,
2013-02-28 03:58:00,26.4,3.1,30.06,South,191,0.0,2.7,36,0.00,,---,0.00,VWS V14.01,2013-02-28 10:58:00,
2013-02-28 04:00:00,26.6,3.3,30.09,South,191,0.0,0.0,36,0.00,,---,0.00,VWS V14.01,2013-02-28 11:00:00,
2013-02-28 04:03:00,26.6,3.3,30.09,South,191,2.7,3.1,36,0.00,,---,0.00,VWS V14.01,2013-02-28 11:03:00,
2013-02-28 04:05:00,26.8,3.4,30.09,South,191,3.6,3.6,36,0.00,,---,0.00,VWS V14.01,2013-02-28 11:05:00,
2013-02-28 04:08:00,26.8,3.4,30.09,SSW,193,4.0,4.0,36,0.00,,---,0.00,VWS V14.01,2013-02-28 11:08:00,
2013-02-28 04:10:00,27.0,3.6,30.09,SSW,193,2.7,4.0,36,0.00,,---,0.00,VWS V14.01,2013-02-28 11:10:00,
2013-02-28 04:11:00,27.0,3.6,30.09,SSW,193,2.7,4.0,36,0.00,,---,0.00,VWS V14.01,2013-02-28 11:11:00,
2013-02-28 04:13:00,27.0,3.6,30.09,SSW,193,2.2,4.0,36,0.00,,---,0.00,VWS V14.01,2013-02-28 11:13:00,
2013-02-28 04:15:00,27.0,3.0,30.09,SSW,193,2.2,2.2,35,0.00,,---,0.00,VWS V14.01,2013-02-28 11:15:00,
2013-02-28 04:16:00,27.0,3.0,30.09,SSW,193,2.2,2.2,35,0.00,,---,0.00,VWS V14.01,2013-02-28 11:16:00,
2013-02-28 04:18:00,27.0,3.0,30.09,SSW,193,2.2,2.7,35,0.00,,---,0.00,VWS V14.01,2013-02-28 11:18:00,
2013-02-28 04:20:00,27.1,3.1,30.09,SSW,193,0.0,2.7,35,0.00,,---,0.00,VWS V14.01,2013-02-28 11:20:00,
2013-02-28 04:21:00,27.3,3.3,30.09,SSW,193,0.0,2.7,35,0.00,,---,0.00,VWS V14.01,2013-02-28 11:21:00,
2013-02-28 04:23:00,27.5,2.8,30.09,SSW,193,0.0,2.7,34,0.00,,---,0.00,VWS V14.01,2013-02-28 11:23:00,
2013-02-28 04:25:00,27.9,3.8,30.09,SSW,193,2.2,2.7,35,0.00,,---,0.00,VWS V14.01,2013-02-28 11:25:00,
2013-02-28 04:26:00,27.9,3.8,30.09,SSW,193,2.2,2.7,35,0.00,,---,0.00,VWS V14.01,2013-02-28 11:26:00,
2013-02-28 04:28:00,27.9,3.2,30.09,SSW,193,0.0,2.7,34,0.00,,---,0.00,VWS V14.01,2013-02-28 11:28:00,
2013-02-28 04:30:00,28.0,3.3,30.09,SSW,193,3.1,3.1,34,0.00,,---,0.00,VWS V14.01,2013-02-28 11:30:00,
2013-02-28 04:31:00,28.0,3.3,30.09,SSW,193,3.1,3.1,34,0.00,,---,0.00,VWS V14.01,2013-02-28 11:31:00,
2013-02-28 04:33:00,28.2,3.5,30.09,SSW,193,0.0,3.1,34,0.00,,---,0.00,VWS V14.01,2013-02-28 11:33:00,
2013-02-28 04:36:00,28.2,3.5,30.09,SSW,193,0.0,3.1,34,0.00,,---,0.00,VWS V14.01,2013-02-28 11:36:00,
2013-02-28 04:38:00,28.2,3.5,30.09,SSW,193,0.0,3.1,34,0.00,,---,0.00,VWS V14.01,2013-02-28 11:38:00,
2013-02-28 04:41:00,28.0,3.3,30.09,SSW,193,2.2,3.1,34,0.00,,---,0.00,VWS V14.01,2013-02-28 11:41:00,
2013-02-28 04:43:00,28.0,3.3,30.09,SSW,193,0.0,3.1,34,0.00,,---,0.00,VWS V14.01,2013-02-28 11:43:00,
2013-02-28 04:46:00,27.9,3.2,30.09,SSW,193,0.0,0.0,34,0.00,,---,0.00,VWS V14.01,2013-02-28 11:46:00,
2013-02-28 04:47:00,27.9,3.2,30.09,SSW,193,0.0,0.0,34,0.00,,---,0.00,VWS V14.01,2013-02-28 11:47:00,
2013-02-28 04:49:00,27.7,3.0,30.09,SSW,193,0.0,0.0,34,0.00,,---,0.00,VWS V14.01,2013-02-28 11:49:00,
2013-02-28 04:51:00,27.5,2.8,30.09,SSW,193,0.0,0.0,34,0.00,,---,0.00,VWS V14.01,2013-02-28 11:51:00,
2013-02-28 04:52:00,27.5,2.8,30.09,SSW,193,0.0,0.0,34,0.00,,---,0.00,VWS V14.01,2013-02-28 11:52:00,
2013-02-28 04:54:00,27.5,2.8,30.09,SSW,193,0.0,0.0,34,0.00,,---,0.00,VWS V14.01,2013-02-28 11:54:00,
2013-02-28 04:56:00,27.5,2.8,30.09,SSW,193,0.0,0.0,34,0.00,,---,0.00,VWS V14.01,2013-02-28 11:56:00,
2013-02-28 04:57:00,27.5,2.8,30.09,SSW,193,0.0,0.0,34,0.00,,---,0.00,VWS V14.01,2013-02-28 11:57:00,
2013-02-28 05:00:00,27.5,2.8,30.09,SSW,193,0.0,0.0,34,0.00,,---,0.00,VWS V14.01,2013-02-28 12:00:00,
2013-02-28 05:02:00,27.5,2.8,30.09,SSW,193,0.0,0.0,34,0.00,,---,0.00,VWS V14.01,2013-02-28 12:02:00,
2013-02-28 05:05:00,27.5,2.8,30.09,SSW,193,0.0,0.0,34,0.00,,---,0.00,VWS V14.01,2013-02-28 12:05:00,
2013-02-28 05:07:00,27.5,2.8,30.09,SSW,193,0.0,0.0,34,0.00,,---,0.00,VWS V14.01,2013-02-28 12:07:00,
2013-02-28 05:10:00,27.5,2.8,30.09,SSW,193,0.0,0.0,34,0.00,,---,0.00,VWS V14.01,2013-02-28 12:10:00,
2013-02-28 05:12:00,27.5,2.8,30.09,SSW,193,0.0,0.0,34,0.00,,---,0.00,VWS V14.01,2013-02-28 12:12:00,
2013-02-28 05:13:00,27.5,2.8,30.09,SSW,193,0.0,0.0,34,0.00,,---,0.00,VWS V14.01,2013-02-28 12:13:00,
2013-02-28 05:15:00,27.5,2.8,30.09,SSW,193,0.0,0.0,34,0.00,,---,0.00,VWS V14.01,2013-02-28 12:15:00,
2013-02-28 05:17:00,27.7,3.0,30.09,SSW,193,0.0,0.0,34,0.00,,---,0.00,VWS V14.01,2013-02-28 12:17:00,
2013-02-28 05:18:00,27.7,3.0,30.09,SSW,193,0.0,0.0,34,0.00,,---,0.00,VWS V14.01,2013-02-28 12:18:00,
2013-02-28 05:20:00,27.7,3.0,30.09,SSW,193,0.0,0.0,34,0.00,,---,0.00,VWS V14.01,2013-02-28 12:20:00,
2013-02-28 05:22:00,27.7,3.0,30.09,SSW,193,0.0,0.0,34,0.00,,---,0.00,VWS V14.01,2013-02-28 12:22:00,
2013-02-28 05:23:00,27.7,3.0,30.09,SSW,193,0.0,0.0,34,0.00,,---,0.00,VWS V14.01,2013-02-28 12:23:00,
2013-02-28 05:25:00,27.7,3.0,30.09,SSW,193,0.0,0.0,34,0.00,,---,0.00,VWS V14.01,2013-02-28 12:25:00,
2013-02-28 05:27:00,27.5,2.8,30.09,SSW,193,2.7,2.7,34,0.00,,---,0.00,VWS V14.01,2013-02-28 12:27:00,
2013-02-28 05:28:00,27.5,2.8,30.09,SSW,193,3.1,3.1,34,0.00,,---,0.00,VWS V14.01,2013-02-28 12:28:00,
2013-02-28 05:30:00,27.5,2.8,30.09,SSW,193,2.2,2.2,34,0.00,,---,0.00,VWS V14.01,2013-02-28 12:30:00,
2013-02-28 05:33:00,27.7,3.0,30.09,SSW,193,0.0,2.7,34,0.00,,---,0.00,VWS V14.01,2013-02-28 12:33:00,
2013-02-28 05:35:00,27.7,3.0,30.09,SSW,194,2.2,2.7,34,0.00,,---,0.00,VWS V14.01,2013-02-28 12:35:00,
2013-02-28 05:38:00,27.7,3.0,30.09,SSW,193,2.2,2.7,34,0.00,,---,0.00,VWS V14.01,2013-02-28 12:38:00,
2013-02-28 05:39:00,27.7,3.0,30.09,SSW,193,2.2,2.7,34,0.00,,---,0.00,VWS V14.01,2013-02-28 12:39:00,
2013-02-28 05:40:00,27.7,3.0,30.09,SSW,193,2.2,2.7,34,0.00,,---,0.00,VWS V14.01,2013-02-28 12:40:00,
2013-02-28 05:43:00,27.7,3.0,30.09,SSW,193,2.2,2.7,34,0.00,,---,0.00,VWS V14.01,2013-02-28 12:43:00,
2013-02-28 05:44:00,27.7,3.0,30.09,SSW,193,2.2,2.7,34,0.00,,---,0.00,VWS V14.01,2013-02-28 12:44:00,
2013-02-28 05:46:00,27.9,3.2,30.09,SSW,193,0.0,0.0,34,0.00,,---,0.00,VWS V14.01,2013-02-28 12:46:00,
2013-02-28 05:48:00,27.9,3.2,30.09,SSW,193,0.0,2.7,34,0.00,,---,0.00,VWS V14.01,2013-02-28 12:48:00,
2013-02-28 05:49:00,27.9,3.2,30.09,SSW,193,0.0,2.7,34,0.00,,---,0.00,VWS V14.01,2013-02-28 12:49:00,
2013-02-28 05:51:00,28.0,3.3,30.09,SSW,194,0.0,2.7,34,0.00,,---,0.00,VWS V14.01,2013-02-28 12:51:00,
2013-02-28 05:53:00,27.9,3.2,30.09,SSW,193,0.0,2.7,34,0.00,,---,0.00,VWS V14.01,2013-02-28 12:53:00,
2013-02-28 05:54:00,27.9,3.2,30.09,SSW,194,0.0,2.7,34,0.00,,---,0.00,VWS V14.01,2013-02-28 12:54:00,
2013-02-28 05:57:00,27.9,3.2,30.09,SSW,193,0.0,2.7,34,0.00,,---,0.00,VWS V14.01,2013-02-28 12:57:00,
2013-02-28 05:59:00,27.9,3.2,30.09,SSW,193,0.0,2.7,34,0.00,,---,0.00,VWS V14.01,2013-02-28 12:59:00,
2013-02-28 06:02:00,27.9,3.2,30.09,SSW,193,0.0,0.0,34,0.00,,---,0.00,VWS V14.01,2013-02-28 13:02:00,
2013-02-28 06:04:00,27.9,3.8,30.09,SSW,193,0.0,0.0,35,0.00,,---,0.00,VWS V14.01,2013-02-28 13:04:00,
2013-02-28 06:07:00,27.7,3.6,30.09,SSW,193,0.0,0.0,35,0.00,,---,0.00,VWS V14.01,2013-02-28 13:07:00,
2013-02-28 06:09:00,27.5,3.5,30.09,SSW,193,0.0,0.0,35,0.00,,---,0.00,VWS V14.01,2013-02-28 13:09:00,
2013-02-28 06:10:00,27.5,3.5,30.09,SSW,193,0.0,0.0,35,0.00,,---,0.00,VWS V14.01,2013-02-28 13:10:00,
2013-02-28 06:12:00,27.3,3.3,30.09,SSW,193,0.0,0.0,35,0.00,,---,0.00,VWS V14.01,2013-02-28 13:12:00,
2013-02-28 06:14:00,27.3,3.3,30.09,SSW,193,0.0,0.0,35,0.00,,---,0.00,VWS V14.01,2013-02-28 13:14:00,
2013-02-28 06:15:00,27.3,3.3,30.09,SSW,193,0.0,0.0,35,0.00,,---,0.00,VWS V14.01,2013-02-28 13:15:00,
2013-02-28 06:17:00,27.1,3.1,30.09,SSW,193,0.0,0.0,35,0.00,,---,0.00,VWS V14.01,2013-02-28 13:17:00,
2013-02-28 06:19:00,27.1,3.1,30.09,SSW,193,0.0,0.0,35,0.00,,---,0.00,VWS V14.01,2013-02-28 13:19:00,
2013-02-28 06:20:00,27.1,3.1,30.09,SSW,193,0.0,0.0,35,0.00,,---,0.00,VWS V14.01,2013-02-28 13:20:00,
2013-02-28 06:22:00,27.1,3.1,30.09,SSW,193,2.2,2.2,35,0.00,,---,0.00,VWS V14.01,2013-02-28 13:22:00,
2013-02-28 06:25:00,27.3,3.3,30.09,SSW,193,3.1,3.6,35,0.00,,---,0.00,VWS V14.01,2013-02-28 13:25:00,
2013-02-28 06:27:00,27.1,3.1,30.09,SSW,193,3.1,3.6,35,0.00,,---,0.00,VWS V14.01,2013-02-28 13:27:00,
2013-02-28 06:30:00,27.1,3.1,30.09,SSW,193,3.6,3.6,35,0.00,,---,0.00,VWS V14.01,2013-02-28 13:30:00,
2013-02-28 06:32:00,27.1,3.1,30.09,SSW,192,0.0,3.6,35,0.00,,---,0.00,VWS V14.01,2013-02-28 13:32:00,
2013-02-28 06:35:00,27.0,3.0,30.09,SSW,193,0.0,3.6,35,0.00,,---,0.00,VWS V14.01,2013-02-28 13:35:00,
2013-02-28 06:37:00,27.0,3.6,30.09,SSW,193,2.2,3.6,36,0.00,,---,0.00,VWS V14.01,2013-02-28 13:37:00,
2013-02-28 06:40:00,27.0,3.6,30.09,SSW,193,2.7,3.6,36,0.00,,---,0.00,VWS V14.01,2013-02-28 13:40:00,
2013-02-28 06:43:00,27.1,3.7,30.09,SSW,193,2.2,3.6,36,0.00,,---,0.00,VWS V14.01,2013-02-28 13:43:00,
2013-02-28 06:45:00,27.3,3.9,30.09,SSW,193,0.0,0.0,36,0.00,,---,0.00,VWS V14.01,2013-02-28 13:45:00,
2013-02-28 06:46:00,27.3,3.9,30.09,SSW,193,0.0,2.2,36,0.00,,---,0.00,VWS V14.01,2013-02-28 13:46:00,
2013-02-28 06:48:00,27.3,4.5,30.09,SSW,192,2.7,2.7,37,0.00,,---,0.00,VWS V14.01,2013-02-28 13:48:00,
2013-02-28 06:50:00,27.1,4.3,30.09,South,190,3.1,3.1,37,0.00,,---,0.00,VWS V14.01,2013-02-28 13:50:00,
2013-02-28 06:51:00,27.0,4.2,30.09,South,190,2.7,3.6,37,0.00,,---,0.00,VWS V14.01,2013-02-28 13:51:00,
2013-02-28 06:53:00,27.0,3.6,30.09,SSW,193,3.6,4.0,36,0.00,,---,0.00,VWS V14.01,2013-02-28 13:53:00,
2013-02-28 06:55:00,26.8,3.4,30.09,SSW,193,3.1,4.0,36,0.00,,---,0.00,VWS V14.01,2013-02-28 13:55:00,
2013-02-28 06:56:00,26.8,3.4,30.09,SSW,193,2.7,4.0,36,0.00,,---,0.00,VWS V14.01,2013-02-28 13:56:00,
2013-02-28 06:58:00,26.8,3.4,30.09,SSW,193,3.1,4.0,36,0.00,,---,0.00,VWS V14.01,2013-02-28 13:58:00,
2013-02-28 07:00:00,26.8,3.4,30.09,SSW,193,2.2,3.1,36,0.00,,---,0.00,VWS V14.01,2013-02-28 14:00:00,
2013-02-28 07:01:00,26.8,3.4,30.09,SSW,193,2.2,3.1,36,0.00,,---,0.00,VWS V14.01,2013-02-28 14:01:00,
2013-02-28 07:02:00,26.8,3.4,30.09,SSW,194,0.0,3.1,36,0.00,,---,0.00,VWS V14.01,2013-02-28 14:02:00,
2013-02-28 07:03:00,26.6,3.8,30.09,SSW,193,0.0,3.1,37,0.00,,---,0.00,VWS V14.01,2013-02-28 14:03:00,
2013-02-28 07:06:00,26.8,3.4,30.09,SSW,193,3.1,3.1,36,0.00,,---,0.00,VWS V14.01,2013-02-28 14:06:00,
2013-02-28 07:07:00,26.8,3.4,30.09,SSW,193,3.1,3.1,36,0.00,,---,0.00,VWS V14.01,2013-02-28 14:07:00,
2013-02-28 07:08:00,27.0,3.0,30.09,SSW,196,4.0,4.0,35,0.00,,---,0.00,VWS V14.01,2013-02-28 14:08:00,
2013-02-28 07:11:00,27.7,3.0,30.09,SSW,198,4.9,4.9,34,0.00,,---,0.00,VWS V14.01,2013-02-28 14:11:00,
2013-02-28 07:12:00,27.7,3.0,30.09,SSW,201,4.0,4.9,34,0.00,,---,0.00,VWS V14.01,2013-02-28 14:12:00,
2013-02-28 07:13:00,27.9,3.2,30.09,SSW,204,4.9,5.4,34,0.00,,---,0.00,VWS V14.01,2013-02-28 14:13:00,
2013-02-28 07:16:00,28.6,3.1,30.09,SSW,206,3.6,6.3,33,0.00,,---,0.00,VWS V14.01,2013-02-28 14:16:00,
2013-02-28 07:17:00,28.8,3.3,30.09,SSW,209,5.4,6.3,33,0.00,,---,0.00,VWS V14.01,2013-02-28 14:17:00,
2013-02-28 07:18:00,29.1,3.6,30.09,SSW,206,6.3,6.3,33,0.00,,---,0.00,VWS V14.01,2013-02-28 14:18:00,
2013-02-28 07:21:00,29.5,3.9,30.09,SSW,201,5.4,6.3,33,0.00,,---,0.00,VWS V14.01,2013-02-28 14:21:00,
2013-02-28 07:22:00,29.5,3.9,30.09,SSW,210,5.8,6.3,33,0.00,,---,0.00,VWS V14.01,2013-02-28 14:22:00,
2013-02-28 07:24:00,29.8,4.2,30.09,SSW,205,7.6,7.6,33,0.00,,---,0.00,VWS V14.01,2013-02-28 14:24:00,
2013-02-28 07:26:00,30.2,3.9,30.09,SSW,209,4.9,7.6,32,0.00,,---,0.00,VWS V14.01,2013-02-28 14:26:00,
2013-02-28 07:27:00,30.2,3.9,30.09,SSW,201,5.4,7.6,32,0.00,,---,0.00,VWS V14.01,2013-02-28 14:27:00,
2013-02-28 07:28:00,30.2,3.9,30.09,SSW,207,5.4,7.6,32,0.00,,---,0.00,VWS V14.01,2013-02-28 14:28:00,
2013-02-28 07:29:00,30.2,3.9,30.09,SSW,205,7.6,7.6,32,0.00,,---,0.00,VWS V14.01,2013-02-28 14:29:00,
2013-02-28 07:31:00,30.4,4.1,30.09,SSW,204,5.8,7.6,32,0.00,,---,0.00,VWS V14.01,2013-02-28 14:31:00,
2013-02-28 07:32:00,30.4,4.1,30.09,SSW,196,5.4,7.6,32,0.00,,---,0.00,VWS V14.01,2013-02-28 14:32:00,
2013-02-28 07:33:00,30.6,4.2,30.09,SSW,204,5.4,7.6,32,0.00,,---,0.00,VWS V14.01,2013-02-28 14:33:00,
2013-02-28 07:34:00,30.6,4.2,30.09,SSW,205,4.9,7.6,32,0.00,,---,0.00,VWS V14.01,2013-02-28 14:34:00,
2013-02-28 07:37:00,30.6,4.2,30.09,SSW,212,5.4,7.6,32,0.00,,---,0.00,VWS V14.01,2013-02-28 14:37:00,
2013-02-28 07:38:00,30.6,4.2,30.09,SSW,203,5.4,7.6,32,0.00,,---,0.00,VWS V14.01,2013-02-28 14:38:00,
2013-02-28 07:39:00,30.6,4.2,30.09,SSW,202,5.8,7.6,32,0.00,,---,0.00,VWS V14.01,2013-02-28 14:39:00,
2013-02-28 07:42:00,30.7,4.4,30.09,SSW,213,6.7,7.6,32,0.00,,---,0.00,VWS V14.01,2013-02-28 14:42:00,
2013-02-28 07:43:00,30.7,4.4,30.09,SSW,199,6.7,7.6,32,0.00,,---,0.00,VWS V14.01,2013-02-28 14:43:00,
2013-02-28 07:44:00,30.7,4.4,30.09,SW,215,5.8,7.6,32,0.00,,---,0.00,VWS V14.01,2013-02-28 14:44:00,
2013-02-28 07:47:00,30.7,4.4,30.09,SSW,210,7.6,7.6,32,0.00,,---,0.00,VWS V14.01,2013-02-28 14:47:00,
2013-02-28 07:48:00,30.7,4.4,30.09,SSW,202,5.4,8.3,32,0.00,,---,0.00,VWS V14.01,2013-02-28 14:48:00,
2013-02-28 07:49:00,30.7,4.4,30.09,SSW,203,6.3,8.3,32,0.00,,---,0.00,VWS V14.01,2013-02-28 14:49:00,
2013-02-28 07:52:00,30.9,4.5,30.09,South,187,5.8,8.3,32,0.00,,---,0.00,VWS V14.01,2013-02-28 14:52:00,
2013-02-28 07:53:00,30.7,3.7,30.09,SSW,202,8.1,11.0,31,0.00,,---,0.00,VWS V14.01,2013-02-28 14:53:00,
2013-02-28 07:54:00,30.9,4.5,30.09,SSW,201,8.1,11.0,32,0.00,,---,0.00,VWS V14.01,2013-02-28 14:54:00,
2013-02-28 07:57:00,30.9,4.5,30.09,SSW,202,6.3,11.0,32,0.00,,---,0.00,VWS V14.01,2013-02-28 14:57:00,
2013-02-28 07:58:00,31.1,4.7,30.09,SSW,198,6.3,11.0,32,0.00,,---,0.00,VWS V14.01,2013-02-28 14:58:00,
2013-02-28 07:59:00,31.1,4.7,30.09,SSW,198,5.8,11.0,32,0.00,,---,0.00,VWS V14.01,2013-02-28 14:59:00,
2013-02-28 08:02:00,31.1,4.7,30.09,SSW,198,7.6,8.3,32,0.00,,---,0.00,VWS V14.01,2013-02-28 15:02:00,
2013-02-28 08:04:00,31.1,4.7,30.09,SSW,200,7.2,8.3,32,0.00,,---,0.00,VWS V14.01,2013-02-28 15:04:00,
2013-02-28 08:07:00,31.3,4.9,30.09,SW,219,6.3,8.3,32,0.00,,---,0.00,VWS V14.01,2013-02-28 15:07:00,
2013-02-28 08:09:00,31.3,4.9,30.09,SW,214,5.8,8.3,32,0.00,,---,0.00,VWS V14.01,2013-02-28 15:09:00,
2013-02-28 08:12:00,31.5,5.0,30.09,SW,218,5.4,11.0,32,0.00,,---,0.00,VWS V14.01,2013-02-28 15:12:00,
2013-02-28 08:14:00,31.5,5.0,30.09,SW,230,5.4,11.0,32,0.00,,---,0.00,VWS V14.01,2013-02-28 15:14:00,
2013-02-28 08:15:00,31.5,5.0,30.09,SSW,207,6.7,11.0,32,0.00,,---,0.00,VWS V14.01,2013-02-28 15:15:00,
2013-02-28 08:17:00,31.6,5.2,30.09,SSW,194,8.7,8.7,32,0.00,,---,0.00,VWS V14.01,2013-02-28 15:17:00,
2013-02-28 08:19:00,31.6,5.2,30.09,SSW,194,7.6,8.7,32,0.00,,---,0.00,VWS V14.01,2013-02-28 15:19:00,
2013-02-28 08:20:00,31.8,5.3,30.09,SSW,204,8.7,8.7,32,0.00,,---,0.00,VWS V14.01,2013-02-28 15:20:00,
2013-02-28 08:22:00,32.0,5.5,30.09,SW,227,7.6,9.2,32,0.00,,---,0.00,VWS V14.01,2013-02-28 15:22:00,
2013-02-28 08:24:00,32.0,5.5,30.09,South,190,5.4,9.2,32,0.00,,---,0.00,VWS V14.01,2013-02-28 15:24:00,
2013-02-28 08:25:00,32.0,5.5,30.09,SSW,197,5.4,9.2,32,0.00,,---,0.00,VWS V14.01,2013-02-28 15:25:00,
2013-02-28 08:28:00,32.0,5.5,30.09,SSW,206,5.4,9.2,32,0.00,,---,0.00,VWS V14.01,2013-02-28 15:28:00,
2013-02-28 08:30:00,32.0,5.5,30.09,SW,230,7.6,11.0,32,0.00,,---,0.00,VWS V14.01,2013-02-28 15:30:00,
2013-02-28 08:33:00,31.8,5.3,30.09,South,189,8.7,8.7,32,0.00,,---,0.00,VWS V14.01,2013-02-28 15:33:00,
2013-02-28 08:35:00,31.8,5.3,30.09,SW,227,6.3,10.1,32,0.00,,---,0.00,VWS V14.01,2013-02-28 15:35:00,
2013-02-28 08:38:00,31.6,5.2,30.09,SSW,210,8.1,10.1,32,0.00,,---,0.00,VWS V14.01,2013-02-28 15:38:00,
2013-02-28 08:40:00,31.6,5.2,30.09,SSW,211,6.3,10.1,32,0.00,,---,0.00,VWS V14.01,2013-02-28 15:40:00,
2013-02-28 08:43:00,31.6,5.2,30.09,SSW,200,4.0,10.1,32,0.00,,---,0.00,VWS V14.01,2013-02-28 15:43:00,
2013-02-28 08:45:00,31.6,5.2,30.09,SW,224,3.6,5.8,32,0.00,,---,0.00,VWS V14.01,2013-02-28 15:45:00,
2013-02-28 08:48:00,31.8,5.3,30.09,SSW,197,5.4,6.3,32,0.00,,---,0.00,VWS V14.01,2013-02-28 15:48:00,
2013-02-28 08:50:00,31.8,5.3,30.09,SSW,192,5.4,6.3,32,0.00,,---,0.00,VWS V14.01,2013-02-28 15:50:00,
2013-02-28 08:54:00,32.0,5.5,30.09,WNW,285,4.0,6.3,32,0.00,,---,0.00,VWS V14.01,2013-02-28 15:54:00,
2013-02-28 08:55:00,32.0,5.5,30.09,South,186,5.4,6.3,32,0.00,,---,0.00,VWS V14.01,2013-02-28 15:55:00,
2013-02-28 08:59:00,32.0,5.5,30.09,SW,218,8.7,8.7,32,0.00,,---,0.00,VWS V14.01,2013-02-28 15:59:00,
2013-02-28 09:00:00,31.8,5.3,30.09,SSW,211,8.1,10.5,32,0.00,,---,0.00,VWS V14.01,2013-02-28 16:00:00,
2013-02-28 09:01:00,31.8,5.3,30.09,SSW,211,8.1,10.5,32,0.00,,---,0.00,VWS V14.01,2013-02-28 16:01:00,
2013-02-28 09:04:00,31.8,5.3,30.09,SSW,207,5.4,10.5,32,0.00,,---,0.00,VWS V14.01,2013-02-28 16:04:00,
2013-02-28 09:05:00,31.8,5.3,30.09,SSW,211,7.2,10.5,32,0.00,,---,0.00,VWS V14.01,2013-02-28 16:05:00,
2013-02-28 09:06:00,31.8,5.3,30.09,SSW,200,4.0,10.5,32,0.00,,---,0.00,VWS V14.01,2013-02-28 16:06:00,
2013-02-28 09:09:00,31.6,5.2,30.09,WSW,249,4.5,10.5,32,0.00,,---,0.00,VWS V14.01,2013-02-28 16:09:00,
2013-02-28 09:10:00,31.8,5.3,30.09,SSW,194,5.8,10.5,32,0.00,,---,0.00,VWS V14.01,2013-02-28 16:10:00,
2013-02-28 09:11:00,31.6,5.2,30.09,SW,222,5.4,10.5,32,0.00,,---,0.00,VWS V14.01,2013-02-28 16:11:00,
2013-02-28 09:15:00,31.6,5.2,30.11,SSW,192,5.4,5.4,32,0.00,,---,0.00,VWS V14.01,2013-02-28 16:15:00,
2013-02-28 09:16:00,31.6,5.2,30.11,South,179,3.1,5.4,32,0.00,,---,0.00,VWS V14.01,2013-02-28 16:16:00,
2013-02-28 09:20:00,31.8,5.3,30.11,SSW,197,4.5,7.6,32,0.00,,---,0.00,VWS V14.01,2013-02-28 16:20:00,
2013-02-28 09:21:00,32.0,5.5,30.11,South,189,2.7,7.6,32,0.00,,---,0.00,VWS V14.01,2013-02-28 16:21:00,
2013-02-28 09:22:00,32.0,5.5,30.11,South,190,2.2,7.6,32,0.00,,---,0.00,VWS V14.01,2013-02-28 16:22:00,
2013-02-28 09:25:00,32.4,5.8,30.11,WNW,286,2.2,7.6,32,0.00,,---,0.00,VWS V14.01,2013-02-28 16:25:00,
2013-02-28 09:26:00,32.4,5.8,30.11,WNW,286,2.2,7.6,32,0.00,,---,0.00,VWS V14.01,2013-02-28 16:26:00,
2013-02-28 09:27:00,32.4,5.8,30.11,WNW,288,2.7,7.6,32,0.00,,---,0.00,VWS V14.01,2013-02-28 16:27:00,
2013-02-28 09:31:00,32.7,6.1,30.11,WNW,289,0.0,2.2,32,0.00,,---,0.00,VWS V14.01,2013-02-28 16:31:00,
2013-02-28 09:32:00,32.7,6.1,30.11,WNW,290,0.0,2.2,32,0.00,,---,0.00,VWS V14.01,2013-02-28 16:32:00,
2013-02-28 09:36:00,32.9,6.3,30.11,ESE,116,0.0,3.6,32,0.00,,---,0.00,VWS V14.01,2013-02-28 16:36:00,
2013-02-28 09:37:00,33.1,6.4,30.11,NNE,18,4.0,4.0,32,0.00,,---,0.00,VWS V14.01,2013-02-28 16:37:00,
2013-02-28 09:41:00,33.1,6.4,30.11,South,188,0.0,4.0,32,0.00,,---,0.00,VWS V14.01,2013-02-28 16:41:00,
2013-02-28 09:42:00,33.1,6.4,30.11,South,188,0.0,4.0,32,0.00,,---,0.00,VWS V14.01,2013-02-28 16:42:00,
2013-02-28 09:43:00,33.3,6.6,30.11,South,188,0.0,4.0,32,0.00,,---,0.00,VWS V14.01,2013-02-28 16:43:00,
2013-02-28 09:46:00,33.4,6.8,30.11,SSW,209,2.2,3.6,32,0.00,,---,0.00,VWS V14.01,2013-02-28 16:46:00,
2013-02-28 09:47:00,33.4,6.8,30.11,SSW,209,0.0,3.6,32,0.00,,---,0.00,VWS V14.01,2013-02-28 16:47:00,
2013-02-28 09:48:00,33.6,6.9,30.11,SSW,203,2.7,3.6,32,0.00,,---,0.00,VWS V14.01,2013-02-28 16:48:00,
2013-02-28 09:51:00,33.8,7.1,30.11,NW,320,2.2,4.0,32,0.00,,---,0.00,VWS V14.01,2013-02-28 16:51:00,
2013-02-28 09:52:00,33.8,7.1,30.11,NW,320,0.0,4.0,32,0.00,,---,0.00,VWS V14.01,2013-02-28 16:52:00,
2013-02-28 09:53:00,33.8,7.1,30.11,South,179,4.0,4.0,32,0.00,,---,0.00,VWS V14.01,2013-02-28 16:53:00,
2013-02-28 09:56:00,33.8,7.1,30.11,SSW,200,5.4,8.3,32,0.00,,---,0.00,VWS V14.01,2013-02-28 16:56:00,
2013-02-28 09:57:00,33.8,7.1,30.11,SSW,200,5.4,8.3,32,0.00,,---,0.00,VWS V14.01,2013-02-28 16:57:00,
2013-02-28 09:58:00,33.8,7.1,30.11,SSW,211,2.7,8.3,32,0.00,,---,0.00,VWS V14.01,2013-02-28 16:58:00,
2013-02-28 10:01:00,34.0,7.2,30.11,NW,313,2.7,4.0,32,0.00,,---,0.00,VWS V14.01,2013-02-28 17:01:00,
2013-02-28 10:02:00,34.0,7.2,30.11,NW,310,4.0,4.0,32,0.00,,---,0.00,VWS V14.01,2013-02-28 17:02:00,
2013-02-28 10:03:00,34.0,7.2,30.11,WNW,303,2.2,4.0,32,0.00,,---,0.00,VWS V14.01,2013-02-28 17:03:00,
2013-02-28 10:06:00,34.2,7.4,30.11,NE,39,2.7,4.0,32,0.00,,---,0.00,VWS V14.01,2013-02-28 17:06:00,
2013-02-28 10:07:00,34.2,7.4,30.11,NE,46,2.7,4.0,32,0.00,,---,0.00,VWS V14.01,2013-02-28 17:07:00,
2013-02-28 10:08:00,34.2,7.4,30.11,NE,38,3.1,4.0,32,0.00,,---,0.00,VWS V14.01,2013-02-28 17:08:00,
2013-02-28 10:11:00,33.8,7.1,30.11,NNE,15,2.7,4.9,32,0.00,,---,0.00,VWS V14.01,2013-02-28 17:11:00,
2013-02-28 10:12:00,33.6,6.9,30.11,NNE,19,2.7,4.9,32,0.00,,---,0.00,VWS V14.01,2013-02-28 17:12:00,
2013-02-28 10:13:00,33.6,6.9,30.11,NNE,21,2.7,4.9,32,0.00,,---,0.00,VWS V14.01,2013-02-28 17:13:00,
2013-02-28 10:17:00,33.1,6.4,30.11,NNE,22,0.0,3.6,32,0.00,,---,0.00,VWS V14.01,2013-02-28 17:17:00,
2013-02-28 10:18:00,32.9,6.3,30.11,NNE,26,3.6,3.6,32,0.00,,---,0.00,VWS V14.01,2013-02-28 17:18:00,
2013-02-28 10:22:00,32.7,6.1,30.11,North,11,2.2,3.6,32,0.00,,---,0.00,VWS V14.01,2013-02-28 17:22:00,
2013-02-28 10:23:00,32.7,6.1,30.11,NNE,16,0.0,3.6,32,0.00,,---,0.00,VWS V14.01,2013-02-28 17:23:00,
2013-02-28 10:24:00,32.7,6.1,30.11,NNE,16,0.0,3.6,32,0.00,,---,0.00,VWS V14.01,2013-02-28 17:24:00,
2013-02-28 10:27:00,33.1,7.1,30.11,North,6,2.7,3.6,33,0.00,,---,0.00,VWS V14.01,2013-02-28 17:27:00,
2013-02-28 10:28:00,33.1,7.1,30.11,North,8,3.6,4.0,33,0.00,,---,0.00,VWS V14.01,2013-02-28 17:28:00,
2013-02-28 10:29:00,33.3,7.3,30.11,North,7,3.1,4.0,33,0.00,,---,0.00,VWS V14.01,2013-02-28 17:29:00,
2013-02-28 10:32:00,33.3,7.3,30.11,North,3,3.6,4.0,33,0.00,,---,0.00,VWS V14.01,2013-02-28 17:32:00,
2013-02-28 10:33:00,33.1,7.1,30.11,North,4,3.1,4.0,33,0.00,,---,0.00,VWS V14.01,2013-02-28 17:33:00,
2013-02-28 10:34:00,33.1,7.1,30.11,North,3,0.0,4.0,33,0.00,,---,0.00,VWS V14.01,2013-02-28 17:34:00,
2013-02-28 10:37:00,33.3,7.3,30.11,NNW,329,3.6,4.0,33,0.00,,---,0.00,VWS V14.01,2013-02-28 17:37:00,
2013-02-28 10:38:00,33.3,7.3,30.11,NNW,327,2.2,4.0,33,0.00,,---,0.00,VWS V14.01,2013-02-28 17:38:00,
2013-02-28 10:39:00,33.4,7.4,30.11,NNW,344,2.7,4.0,33,0.00,,---,0.00,VWS V14.01,2013-02-28 17:39:00,
2013-02-28 10:42:00,33.8,7.8,30.11,NNW,341,0.0,4.0,33,0.00,,---,0.00,VWS V14.01,2013-02-28 17:42:00,
2013-02-28 10:43:00,34.0,7.9,30.11,NNW,341,0.0,4.0,33,0.00,,---,0.00,VWS V14.01,2013-02-28 17:43:00,
2013-02-28 10:44:00,34.3,8.2,30.14,NW,306,2.2,4.0,33,0.00,,---,0.00,VWS V14.01,2013-02-28 17:44:00,
2013-02-28 10:47:00,34.7,8.6,30.14,WNW,290,0.0,3.1,33,0.00,,---,0.00,VWS V14.01,2013-02-28 17:47:00,
2013-02-28 10:48:00,34.9,8.7,30.14,SSW,205,3.6,3.6,33,0.00,,---,0.00,VWS V14.01,2013-02-28 17:48:00,
2013-02-28 10:49:00,35.2,9.0,30.14,SSE,168,2.7,3.6,33,0.00,,---,0.00,VWS V14.01,2013-02-28 17:49:00,
2013-02-28 10:52:00,35.8,9.5,30.14,WSW,243,3.1,6.3,33,0.00,,---,0.00,VWS V14.01,2013-02-28 17:52:00,
2013-02-28 10:53:00,35.8,9.5,30.14,North,357,3.6,6.3,33,0.00,,---,0.00,VWS V14.01,2013-02-28 17:53:00,
2013-02-28 10:54:00,36.1,9.1,30.14,NNW,340,2.7,6.3,32,0.00,,---,0.00,VWS V14.01,2013-02-28 17:54:00,
2013-02-28 10:57:00,36.5,9.5,30.14,NNW,334,3.6,6.3,32,0.00,,---,0.00,VWS V14.01,2013-02-28 17:57:00,
2013-02-28 10:58:00,36.5,9.5,30.14,North,357,4.0,6.3,32,0.00,,---,0.00,VWS V14.01,2013-02-28 17:58:00,
2013-02-28 11:00:00,36.3,9.3,30.11,NNW,342,2.2,2.2,32,0.00,,---,0.00,VWS V14.01,2013-02-28 18:00:00,
2013-02-28 11:02:00,36.7,10.3,30.11,West,278,3.6,3.6,33,0.00,,---,0.00,VWS V14.01,2013-02-28 18:02:00,
2013-02-28 11:03:00,36.9,9.8,30.11,West,279,0.0,3.6,32,0.00,,---,0.00,VWS V14.01,2013-02-28 18:03:00,
2013-02-28 11:05:00,37.0,9.9,30.11,West,278,2.7,3.6,32,0.00,,---,0.00,VWS V14.01,2013-02-28 18:05:00,
2013-02-28 11:07:00,37.4,10.2,30.11,South,186,2.7,3.6,32,0.00,,---,0.00,VWS V14.01,2013-02-28 18:07:00,
2013-02-28 11:08:00,37.4,10.2,30.11,SSW,204,4.5,6.3,32,0.00,,---,0.00,VWS V14.01,2013-02-28 18:08:00,
2013-02-28 11:10:00,37.6,10.4,30.11,SW,216,0.0,6.3,32,0.00,,---,0.00,VWS V14.01,2013-02-28 18:10:00,
2013-02-28 11:13:00,37.6,10.4,30.11,NW,316,3.6,6.3,32,0.00,,---,0.00,VWS V14.01,2013-02-28 18:13:00,
2013-02-28 11:14:00,37.6,10.4,30.14,NW,304,2.7,6.3,32,0.00,,---,0.00,VWS V14.01,2013-02-28 18:14:00,
2013-02-28 11:15:00,37.6,9.7,30.14,West,281,2.7,3.1,31,0.00,,---,0.00,VWS V14.01,2013-02-28 18:15:00,
2013-02-28 11:18:00,37.6,10.4,30.14,WSW,237,3.1,4.0,32,0.00,,---,0.00,VWS V14.01,2013-02-28 18:18:00,
2013-02-28 11:19:00,37.6,10.4,30.14,WNW,289,3.1,4.0,32,0.00,,---,0.00,VWS V14.01,2013-02-28 18:19:00,
2013-02-28 11:20:00,37.6,10.4,30.14,WNW,299,0.0,4.0,32,0.00,,---,0.00,VWS V14.01,2013-02-28 18:20:00,
2013-02-28 11:23:00,37.4,10.2,30.14,SSW,212,0.0,4.0,32,0.00,,---,0.00,VWS V14.01,2013-02-28 18:23:00,
2013-02-28 11:24:00,37.4,10.2,30.14,West,268,3.1,4.0,32,0.00,,---,0.00,VWS V14.01,2013-02-28 18:24:00,
2013-02-28 11:25:00,37.4,10.2,30.14,West,268,0.0,4.0,32,0.00,,---,0.00,VWS V14.01,2013-02-28 18:25:00,
2013-02-28 11:28:00,37.4,10.2,30.14,West,268,3.1,4.0,32,0.00,,---,0.00,VWS V14.01,2013-02-28 18:28:00,
2013-02-28 11:29:00,37.4,9.5,30.14,West,268,3.6,4.0,31,0.00,,---,0.00,VWS V14.01,2013-02-28 18:29:00,
2013-02-28 11:30:00,37.6,10.4,30.14,West,281,3.6,3.6,32,0.00,,---,0.00,VWS V14.01,2013-02-28 18:30:00,
2013-02-28 11:33:00,37.6,10.4,30.14,West,281,2.7,3.6,32,0.00,,---,0.00,VWS V14.01,2013-02-28 18:33:00,
2013-02-28 11:34:00,37.8,9.9,30.14,WNW,283,0.0,3.6,31,0.00,,---,0.00,VWS V14.01,2013-02-28 18:34:00,
2013-02-28 11:35:00,37.9,10.7,30.14,WNW,286,2.2,3.6,32,0.00,,---,0.00,VWS V14.01,2013-02-28 18:35:00,
2013-02-28 11:38:00,37.9,10.7,30.14,WNW,283,2.7,4.0,32,0.00,,---,0.00,VWS V14.01,2013-02-28 18:38:00,
2013-02-28 11:39:00,38.1,10.9,30.14,WNW,282,0.0,4.0,32,0.00,,---,0.00,VWS V14.01,2013-02-28 18:39:00,
2013-02-28 11:40:00,38.1,10.9,30.14,NNW,328,2.7,5.8,32,0.00,,---,0.00,VWS V14.01,2013-02-28 18:40:00,
2013-02-28 11:43:00,38.5,11.2,30.14,WNW,302,3.1,5.8,32,0.00,,---,0.00,VWS V14.01,2013-02-28 18:43:00,
2013-02-28 11:44:00,38.7,11.4,30.14,WNW,295,3.1,5.8,32,0.00,,---,0.00,VWS V14.01,2013-02-28 18:44:00,
2013-02-28 11:46:00,38.8,10.8,30.14,South,188,2.2,2.7,31,0.00,,---,0.00,VWS V14.01,2013-02-28 18:46:00,
2013-02-28 11:49:00,39.2,11.1,30.14,West,275,2.7,4.9,31,0.00,,---,0.00,VWS V14.01,2013-02-28 18:49:00,
2013-02-28 11:50:00,39.4,11.3,30.14,West,271,0.0,4.9,31,0.00,,---,0.00,VWS V14.01,2013-02-28 18:50:00,
2013-02-28 11:51:00,39.4,11.3,30.14,West,271,0.0,4.9,31,0.00,,---,0.00,VWS V14.01,2013-02-28 18:51:00,
2013-02-28 11:54:00,39.9,11.8,30.14,West,273,3.1,4.9,31,0.00,,---,0.00,VWS V14.01,2013-02-28 18:54:00,
2013-02-28 11:55:00,39.9,11.8,30.14,West,266,2.7,4.9,31,0.00,,---,0.00,VWS V14.01,2013-02-28 18:55:00,
2013-02-28 11:56:00,40.1,11.9,30.14,SSE,168,4.5,4.9,31,0.00,,---,0.00,VWS V14.01,2013-02-28 18:56:00,
2013-02-28 11:59:00,40.5,12.2,30.14,WSW,250,3.6,4.9,31,0.00,,---,0.00,VWS V14.01,2013-02-28 18:59:00,
2013-02-28 12:00:00,40.5,12.2,30.14,SW,221,4.0,5.4,31,0.00,,---,0.00,VWS V14.01,2013-02-28 19:00:00,
2013-02-28 12:01:00,40.5,12.2,30.14,South,183,6.7,7.2,31,0.00,,---,0.00,VWS V14.01,2013-02-28 19:01:00,
2013-02-28 12:04:00,40.3,12.1,30.14,NW,311,5.4,7.2,31,0.00,,---,0.00,VWS V14.01,2013-02-28 19:04:00,
2013-02-28 12:05:00,40.1,11.9,30.14,NW,314,5.4,7.2,31,0.00,,---,0.00,VWS V14.01,2013-02-28 19:05:00,
2013-02-28 12:06:00,39.9,11.8,30.14,NW,305,2.7,7.2,31,0.00,,---,0.00,VWS V14.01,2013-02-28 19:06:00,
2013-02-28 12:09:00,39.7,11.6,30.14,NW,314,3.6,7.2,31,0.00,,---,0.00,VWS V14.01,2013-02-28 19:09:00,
2013-02-28 12:10:00,39.6,11.4,30.14,NW,308,3.6,7.2,31,0.00,,---,0.00,VWS V14.01,2013-02-28 19:10:00,
2013-02-28 12:11:00,39.6,11.4,30.14,WNW,289,3.6,7.2,31,0.00,,---,0.00,VWS V14.01,2013-02-28 19:11:00,
2013-02-28 12:14:00,39.4,11.3,30.14,North,353,4.9,7.2,31,0.00,,---,0.00,VWS V14.01,2013-02-28 19:14:00,
2013-02-28 12:15:00,39.0,11.0,30.14,North,357,9.2,9.2,31,0.00,,---,0.00,VWS V14.01,2013-02-28 19:15:00,
2013-02-28 12:16:00,38.8,10.8,30.14,North,10,8.1,9.2,31,0.00,,---,0.00,VWS V14.01,2013-02-28 19:16:00,
2013-02-28 12:19:00,38.5,10.5,30.14,NNW,341,4.0,9.2,31,0.00,,---,0.00,VWS V14.01,2013-02-28 19:19:00,
2013-02-28 12:20:00,38.3,11.0,30.14,NNW,330,3.6,9.2,32,0.00,,---,0.00,VWS V14.01,2013-02-28 19:20:00,
2013-02-28 12:21:00,38.3,11.0,30.14,NNW,330,2.2,9.2,32,0.00,,---,0.00,VWS V14.01,2013-02-28 19:21:00,
2013-02-28 12:24:00,38.1,10.9,30.14,North,0,2.7,9.2,32,0.00,,---,0.00,VWS V14.01,2013-02-28 19:24:00,
2013-02-28 12:25:00,38.1,10.9,30.14,NW,324,3.6,9.2,32,0.00,,---,0.00,VWS V14.01,2013-02-28 19:25:00,
2013-02-28 12:26:00,37.9,10.7,30.14,NW,325,2.7,9.2,32,0.00,,---,0.00,VWS V14.01,2013-02-28 19:26:00,
2013-02-28 12:29:00,38.1,10.9,30.14,North,357,3.6,9.2,32,0.00,,---,0.00,VWS V14.01,2013-02-28 19:29:00,
2013-02-28 12:31:00,38.1,10.9,30.14,North,1,4.0,5.4,32,0.00,,---,0.00,VWS V14.01,2013-02-28 19:31:00,
2013-02-28 12:32:00,38.3,11.0,30.14,NNW,338,5.4,6.3,32,0.00,,---,0.00,VWS V14.01,2013-02-28 19:32:00,
2013-02-28 12:34:00,38.5,11.2,30.14,NNW,345,5.4,6.3,32,0.00,,---,0.00,VWS V14.01,2013-02-28 19:34:00,
2013-02-28 12:36:00,38.5,11.2,30.14,NNW,338,0.0,6.3,32,0.00,,---,0.00,VWS V14.01,2013-02-28 19:36:00,
2013-02-28 12:37:00,38.7,11.4,30.14,NNE,15,2.7,6.3,32,0.00,,---,0.00,VWS V14.01,2013-02-28 19:37:00,
2013-02-28 12:39:00,38.8,11.5,30.14,North,357,0.0,6.3,32,0.00,,---,0.00,VWS V14.01,2013-02-28 19:39:00,
2013-02-28 12:41:00,38.8,11.5,30.14,WNW,286,0.0,6.3,32,0.00,,---,0.00,VWS V14.01,2013-02-28 19:41:00,
2013-02-28 12:42:00,39.0,11.7,30.14,NW,306,5.4,6.7,32,0.00,,---,0.00,VWS V14.01,2013-02-28 19:42:00,
2013-02-28 12:44:00,39.2,11.1,30.14,North,5,6.3,6.7,31,0.00,,---,0.00,VWS V14.01,2013-02-28 19:44:00,
2013-02-28 12:46:00,39.2,11.1,30.14,NW,326,2.7,3.6,31,0.00,,---,0.00,VWS V14.01,2013-02-28 19:46:00,
2013-02-28 12:47:00,39.4,11.3,30.14,NW,305,0.0,4.0,31,0.00,,---,0.00,VWS V14.01,2013-02-28 19:47:00,
2013-02-28 12:49:00,39.7,11.6,30.14,WNW,295,2.7,4.9,31,0.00,,---,0.00,VWS V14.01,2013-02-28 19:49:00,
2013-02-28 12:51:00,39.7,11.6,30.14,North,0,3.1,4.9,31,0.00,,---,0.00,VWS V14.01,2013-02-28 19:51:00,
2013-02-28 12:52:00,39.9,11.8,30.14,North,0,2.2,4.9,31,0.00,,---,0.00,VWS V14.01,2013-02-28 19:52:00,
2013-02-28 12:55:00,40.1,12.6,30.14,West,277,2.7,4.9,32,0.00,,---,0.00,VWS V14.01,2013-02-28 19:55:00,
2013-02-28 12:56:00,40.3,12.8,30.14,NW,305,5.4,5.4,32,0.00,,---,0.00,VWS V14.01,2013-02-28 19:56:00,
2013-02-28 12:58:00,40.5,12.2,30.14,NNW,327,2.7,5.4,31,0.00,,---,0.00,VWS V14.01,2013-02-28 19:58:00,
2013-02-28 13:00:00,40.6,12.4,30.14,North,353,3.1,5.4,31,0.00,,---,0.00,VWS V14.01,2013-02-28 20:00:00,
2013-02-28 13:01:00,40.5,12.2,30.14,NNE,23,4.9,4.9,31,0.00,,---,0.00,VWS V14.01,2013-02-28 20:01:00,
2013-02-28 13:03:00,40.3,12.1,30.14,North,0,4.9,5.4,31,0.00,,---,0.00,VWS V14.01,2013-02-28 20:03:00,
2013-02-28 13:05:00,40.1,11.9,30.14,North,357,4.0,5.4,31,0.00,,---,0.00,VWS V14.01,2013-02-28 20:05:00,
2013-02-28 13:06:00,39.9,11.8,30.14,NNW,346,3.6,6.3,31,0.00,,---,0.00,VWS V14.01,2013-02-28 20:06:00,
2013-02-28 13:07:00,39.9,11.8,30.14,NNW,345,2.2,6.3,31,0.00,,---,0.00,VWS V14.01,2013-02-28 20:07:00,
2013-02-28 13:08:00,39.7,11.6,30.14,NNW,332,2.7,6.3,31,0.00,,---,0.00,VWS V14.01,2013-02-28 20:08:00,
2013-02-28 13:10:00,39.7,11.6,30.14,North,357,2.7,6.3,31,0.00,,---,0.00,VWS V14.01,2013-02-28 20:10:00,
2013-02-28 13:11:00,39.7,11.6,30.14,North,349,3.1,6.3,31,0.00,,---,0.00,VWS V14.01,2013-02-28 20:11:00,
2013-02-28 13:12:00,39.6,11.4,30.14,WNW,293,3.1,6.3,31,0.00,,---,0.00,VWS V14.01,2013-02-28 20:12:00,
2013-02-28 13:13:00,39.6,11.4,30.14,WNW,297,2.7,6.3,31,0.00,,---,0.00,VWS V14.01,2013-02-28 20:13:00,
2013-02-28 13:15:00,39.4,11.3,30.14,WNW,303,2.7,3.6,31,0.00,,---,0.00,VWS V14.01,2013-02-28 20:15:00,
2013-02-28 13:17:00,39.4,11.3,30.14,NW,323,2.7,4.0,31,0.00,,---,0.00,VWS V14.01,2013-02-28 20:17:00,
2013-02-28 13:18:00,39.2,11.1,30.14,NW,326,3.1,5.4,31,0.00,,---,0.00,VWS V14.01,2013-02-28 20:18:00,
2013-02-28 13:20:00,38.8,10.8,30.14,WNW,302,5.4,5.4,31,0.00,,---,0.00,VWS V14.01,2013-02-28 20:20:00,
2013-02-28 13:22:00,38.8,10.8,30.14,NW,324,2.7,5.4,31,0.00,,---,0.00,VWS V14.01,2013-02-28 20:22:00,
2013-02-28 13:23:00,38.8,11.5,30.14,NW,312,2.7,5.4,32,0.00,,---,0.00,VWS V14.01,2013-02-28 20:23:00,
2013-02-28 13:26:00,38.8,11.5,30.14,NW,305,2.2,5.4,32,0.00,,---,0.00,VWS V14.01,2013-02-28 20:26:00,
2013-02-28 13:27:00,39.0,11.7,30.14,NW,323,2.2,5.4,32,0.00,,---,0.00,VWS V14.01,2013-02-28 20:27:00,
2013-02-28 13:28:00,39.0,11.7,30.14,NNW,338,2.7,5.4,32,0.00,,---,0.00,VWS V14.01,2013-02-28 20:28:00,
2013-02-28 13:31:00,39.2,11.1,30.14,North,357,2.7,3.6,31,0.00,,---,0.00,VWS V14.01,2013-02-28 20:31:00,
2013-02-28 13:32:00,39.4,11.3,30.14,North,353,6.3,7.6,31,0.00,,---,0.00,VWS V14.01,2013-02-28 20:32:00,
2013-02-28 13:33:00,39.4,11.3,30.14,NNW,341,3.6,7.6,31,0.00,,---,0.00,VWS V14.01,2013-02-28 20:33:00,
2013-02-28 13:34:00,39.4,11.3,30.14,North,1,4.0,7.6,31,0.00,,---,0.00,VWS V14.01,2013-02-28 20:34:00,
2013-02-28 13:36:00,39.6,11.4,30.14,NNW,343,3.1,7.6,31,0.00,,---,0.00,VWS V14.01,2013-02-28 20:36:00,
2013-02-28 13:38:00,39.7,12.3,30.14,NW,316,2.7,7.6,32,0.00,,---,0.00,VWS V14.01,2013-02-28 20:38:00,
2013-02-28 13:39:00,40.3,12.1,30.14,West,280,2.7,7.6,31,0.00,,---,0.00,VWS V14.01,2013-02-28 20:39:00,
2013-02-28 13:41:00,40.6,12.4,30.14,NW,310,4.0,7.6,31,0.00,,---,0.00,VWS V14.01,2013-02-28 20:41:00,
2013-02-28 13:43:00,40.8,12.5,30.14,North,2,5.8,7.6,31,0.00,,---,0.00,VWS V14.01,2013-02-28 20:43:00,
2013-02-28 13:45:00,40.8,11.8,30.14,WNW,293,5.8,6.3,30,0.00,,---,0.00,VWS V14.01,2013-02-28 20:45:00,
2013-02-28 13:47:00,40.8,11.8,30.14,WNW,284,5.4,6.3,30,0.00,,---,0.00,VWS V14.01,2013-02-28 20:47:00,
2013-02-28 13:48:00,41.0,12.0,30.14,WSW,242,3.6,6.3,30,0.00,,---,0.00,VWS V14.01,2013-02-28 20:48:00,
2013-02-28 13:49:00,40.8,11.8,30.14,West,280,3.1,6.3,30,0.00,,---,0.00,VWS V14.01,2013-02-28 20:49:00,
2013-02-28 13:50:00,41.0,12.0,30.14,NW,320,3.6,6.3,30,0.00,,---,0.00,VWS V14.01,2013-02-28 20:50:00,
2013-02-28 13:52:00,41.0,12.0,30.14,WSW,256,5.4,6.3,30,0.00,,---,0.00,VWS V14.01,2013-02-28 20:52:00,
2013-02-28 13:53:00,41.0,12.0,30.14,WNW,287,5.8,6.3,30,0.00,,---,0.00,VWS V14.01,2013-02-28 20:53:00,
2013-02-28 13:54:00,41.0,12.0,30.14,WNW,292,2.7,6.3,30,0.00,,---,0.00,VWS V14.01,2013-02-28 20:54:00,
2013-02-28 13:56:00,41.0,12.0,30.14,West,269,3.1,6.3,30,0.00,,---,0.00,VWS V14.01,2013-02-28 20:56:00,
2013-02-28 13:57:00,41.0,12.0,30.14,WNW,282,4.0,6.3,30,0.00,,---,0.00,VWS V14.01,2013-02-28 20:57:00,
2013-02-28 13:58:00,41.0,11.2,30.14,West,277,3.1,6.3,29,0.00,,---,0.00,VWS V14.01,2013-02-28 20:58:00,
2013-02-28 13:59:00,41.0,11.2,30.14,West,271,3.6,6.3,29,0.00,,---,0.00,VWS V14.01,2013-02-28 20:59:00,
2013-02-28 14:01:00,41.0,11.2,30.14,SW,236,4.9,4.9,29,0.00,,---,0.00,VWS V14.01,2013-02-28 21:01:00,
2013-02-28 14:03:00,41.2,12.1,30.14,WNW,294,4.0,4.9,30,0.00,,---,0.00,VWS V14.01,2013-02-28 21:03:00,
2013-02-28 14:04:00,41.2,12.1,30.14,WNW,301,4.0,4.9,30,0.00,,---,0.00,VWS V14.01,2013-02-28 21:04:00,
2013-02-28 14:06:00,41.2,12.1,30.14,WNW,301,4.0,5.4,30,0.00,,---,0.00,VWS V14.01,2013-02-28 21:06:00,
2013-02-28 14:08:00,41.2,11.4,30.14,West,269,3.6,5.8,29,0.00,,---,0.00,VWS V14.01,2013-02-28 21:08:00,
2013-02-28 14:09:00,41.2,11.4,30.14,West,277,3.6,5.8,29,0.00,,---,0.00,VWS V14.01,2013-02-28 21:09:00,
2013-02-28 14:11:00,41.2,11.4,30.14,WNW,286,2.7,6.3,29,0.00,,---,0.00,VWS V14.01,2013-02-28 21:11:00,
2013-02-28 14:13:00,41.4,11.5,30.14,WNW,296,3.6,6.3,29,0.00,,---,0.00,VWS V14.01,2013-02-28 21:13:00,
2013-02-28 14:14:00,41.2,11.4,30.14,WNW,292,3.6,6.3,29,0.00,,---,0.00,VWS V14.01,2013-02-28 21:14:00,
2013-02-28 14:16:00,41.2,11.4,30.14,West,274,3.6,7.2,29,0.00,,---,0.00,VWS V14.01,2013-02-28 21:16:00,
2013-02-28 14:18:00,41.2,11.4,30.14,West,259,4.0,7.2,29,0.00,,---,0.00,VWS V14.01,2013-02-28 21:18:00,
2013-02-28 14:19:00,41.2,11.4,30.14,SSW,207,2.7,7.2,29,0.00,,---,0.00,VWS V14.01,2013-02-28 21:19:00,
2013-02-28 14:20:00,41.2,11.4,30.14,SW,231,3.6,7.2,29,0.00,,---,0.00,VWS V14.01,2013-02-28 21:20:00,
2013-02-28 14:21:00,41.4,12.3,30.14,SSW,208,4.9,7.2,30,0.00,,---,0.00,VWS V14.01,2013-02-28 21:21:00,
2013-02-28 14:23:00,41.5,11.7,30.14,SW,219,2.7,7.6,29,0.00,,---,0.00,VWS V14.01,2013-02-28 21:23:00,
2013-02-28 14:24:00,41.7,11.8,30.14,West,268,3.1,7.6,29,0.00,,---,0.00,VWS V14.01,2013-02-28 21:24:00,
2013-02-28 14:25:00,41.7,11.8,30.14,WNW,291,2.7,7.6,29,0.00,,---,0.00,VWS V14.01,2013-02-28 21:25:00,
2013-02-28 14:26:00,41.7,11.8,30.14,WSW,242,2.7,7.6,29,0.00,,---,0.00,VWS V14.01,2013-02-28 21:26:00,
2013-02-28 14:28:00,41.9,12.0,30.14,SW,236,3.6,7.6,29,0.00,,---,0.00,VWS V14.01,2013-02-28 21:28:00,
2013-02-28 14:29:00,42.1,12.1,30.14,SSW,192,3.6,7.6,29,0.00,,---,0.00,VWS V14.01,2013-02-28 21:29:00,
2013-02-28 14:30:00,42.1,12.1,30.14,SW,216,4.5,7.6,29,0.00,,---,0.00,VWS V14.01,2013-02-28 21:30:00,
2013-02-28 14:32:00,41.9,12.0,30.14,WSW,255,4.0,4.9,29,0.00,,---,0.00,VWS V14.01,2013-02-28 21:32:00,
2013-02-28 14:33:00,41.9,12.0,30.14,SSW,196,4.9,4.9,29,0.00,,---,0.00,VWS V14.01,2013-02-28 21:33:00,
2013-02-28 14:34:00,41.9,12.0,30.14,SW,229,2.7,4.9,29,0.00,,---,0.00,VWS V14.01,2013-02-28 21:34:00,
2013-02-28 14:35:00,41.7,11.8,30.14,WNW,284,2.7,4.9,29,0.00,,---,0.00,VWS V14.01,2013-02-28 21:35:00,
2013-02-28 14:37:00,41.7,11.8,30.14,SSW,198,3.1,4.9,29,0.00,,---,0.00,VWS V14.01,2013-02-28 21:37:00,
2013-02-28 14:38:00,41.7,11.8,30.14,WNW,293,2.7,4.9,29,0.00,,---,0.00,VWS V14.01,2013-02-28 21:38:00,
2013-02-28 14:39:00,41.7,11.8,30.14,NW,319,3.6,4.9,29,0.00,,---,0.00,VWS V14.01,2013-02-28 21:39:00,
2013-02-28 14:40:00,41.7,11.8,30.14,NNW,341,4.0,4.9,29,0.00,,---,0.00,VWS V14.01,2013-02-28 21:40:00,
2013-02-28 14:42:00,41.7,11.8,30.14,SSW,197,3.1,4.9,29,0.00,,---,0.00,VWS V14.01,2013-02-28 21:42:00,
2013-02-28 14:43:00,41.7,11.8,30.14,SSW,206,3.6,4.9,29,0.00,,---,0.00,VWS V14.01,2013-02-28 21:43:00,
2013-02-28 14:44:00,41.7,11.8,30.14,WSW,239,3.1,4.9,29,0.00,,---,0.00,VWS V14.01,2013-02-28 21:44:00,
2013-02-28 14:45:00,41.9,12.0,30.14,WNW,292,3.1,3.6,29,0.00,,---,0.00,VWS V14.01,2013-02-28 21:45:00,
2013-02-28 14:47:00,42.1,12.1,30.14,WNW,296,2.2,3.6,29,0.00,,---,0.00,VWS V14.01,2013-02-28 21:47:00,
2013-02-28 14:48:00,42.1,12.1,30.14,WNW,296,2.7,3.6,29,0.00,,---,0.00,VWS V14.01,2013-02-28 21:48:00,
2013-02-28 14:49:00,42.1,12.1,30.14,WNW,296,0.0,3.6,29,0.00,,---,0.00,VWS V14.01,2013-02-28 21:49:00,
2013-02-28 14:50:00,42.1,12.1,30.14,WNW,294,2.2,3.6,29,0.00,,---,0.00,VWS V14.01,2013-02-28 21:50:00,
2013-02-28 14:52:00,42.1,12.1,30.14,South,189,4.0,4.0,29,0.00,,---,0.00,VWS V14.01,2013-02-28 21:52:00,
2013-02-28 14:53:00,42.1,12.1,30.14,SSW,195,2.7,4.0,29,0.00,,---,0.00,VWS V14.01,2013-02-28 21:53:00,
2013-02-28 14:54:00,42.1,12.1,30.14,West,280,2.7,4.0,29,0.00,,---,0.00,VWS V14.01,2013-02-28 21:54:00,
2013-02-28 14:55:00,42.1,12.1,30.14,WNW,303,3.6,4.0,29,0.00,,---,0.00,VWS V14.01,2013-02-28 21:55:00,
2013-02-28 14:58:00,42.1,12.1,30.14,SSW,197,3.1,4.9,29,0.00,,---,0.00,VWS V14.01,2013-02-28 21:58:00,
2013-02-28 14:59:00,41.9,12.0,30.14,West,265,3.1,4.9,29,0.00,,---,0.00,VWS V14.01,2013-02-28 21:59:00,
2013-02-28 15:00:00,41.9,12.0,30.14,SW,221,0.0,4.9,29,0.00,,---,0.00,VWS V14.01,2013-02-28 22:00:00,
2013-02-28 15:03:00,41.7,11.8,30.14,West,279,2.7,5.8,29,0.00,,---,0.00,VWS V14.01,2013-02-28 22:03:00,
2013-02-28 15:04:00,41.7,11.8,30.14,West,276,2.7,5.8,29,0.00,,---,0.00,VWS V14.01,2013-02-28 22:04:00,
2013-02-28 15:05:00,41.7,11.8,30.14,West,265,3.6,5.8,29,0.00,,---,0.00,VWS V14.01,2013-02-28 22:05:00,
2013-02-28 15:08:00,41.7,11.8,30.14,WNW,283,2.7,5.8,29,0.00,,---,0.00,VWS V14.01,2013-02-28 22:08:00,
2013-02-28 15:09:00,41.7,11.8,30.14,WNW,283,2.7,5.8,29,0.00,,---,0.00,VWS V14.01,2013-02-28 22:09:00,
2013-02-28 15:10:00,41.7,11.8,30.14,WNW,289,2.7,5.8,29,0.00,,---,0.00,VWS V14.01,2013-02-28 22:10:00,
2013-02-28 15:11:00,41.7,11.8,30.14,WNW,287,2.2,5.8,29,0.00,,---,0.00,VWS V14.01,2013-02-28 22:11:00,
2013-02-28 15:13:00,41.9,12.0,30.14,WNW,295,3.6,5.8,29,0.00,,---,0.00,VWS V14.01,2013-02-28 22:13:00,
2013-02-28 15:14:00,41.9,12.0,30.14,West,281,4.0,5.8,29,0.00,,---,0.00,VWS V14.01,2013-02-28 22:14:00,
2013-02-28 15:15:00,41.9,12.0,30.14,WNW,283,0.0,5.8,29,0.00,,---,0.00,VWS V14.01,2013-02-28 22:15:00,
2013-02-28 15:16:00,41.9,12.0,30.14,WNW,283,0.0,3.1,29,0.00,,---,0.00,VWS V14.01,2013-02-28 22:16:00,
2013-02-28 15:18:00,41.9,12.0,30.14,WNW,286,3.1,3.1,29,0.00,,---,0.00,VWS V14.01,2013-02-28 22:18:00,
2013-02-28 15:19:00,41.9,12.0,30.14,WNW,283,2.2,3.1,29,0.00,,---,0.00,VWS V14.01,2013-02-28 22:19:00,
2013-02-28 15:20:00,41.9,12.0,30.14,WSW,244,2.2,4.0,29,0.00,,---,0.00,VWS V14.01,2013-02-28 22:20:00,
2013-02-28 15:21:00,41.9,12.0,30.14,West,273,4.9,4.9,29,0.00,,---,0.00,VWS V14.01,2013-02-28 22:21:00,
2013-02-28 15:23:00,41.9,12.0,30.14,West,272,4.0,4.9,29,0.00,,---,0.00,VWS V14.01,2013-02-28 22:23:00,
2013-02-28 15:24:00,41.9,12.0,30.14,West,267,2.7,4.9,29,0.00,,---,0.00,VWS V14.01,2013-02-28 22:24:00,
2013-02-28 15:25:00,41.9,12.0,30.14,SSW,212,3.1,4.9,29,0.00,,---,0.00,VWS V14.01,2013-02-28 22:25:00,
2013-02-28 15:26:00,41.9,12.0,30.14,SSW,213,0.0,4.9,29,0.00,,---,0.00,VWS V14.01,2013-02-28 22:26:00,
2013-02-28 15:28:00,41.9,12.0,30.14,WSW,254,2.2,4.9,29,0.00,,---,0.00,VWS V14.01,2013-02-28 22:28:00,
2013-02-28 15:29:00,41.9,12.0,30.14,WSW,253,0.0,4.9,29,0.00,,---,0.00,VWS V14.01,2013-02-28 22:29:00,
2013-02-28 15:30:00,41.9,12.0,30.14,WSW,253,0.0,0.0,29,0.00,,---,0.00,VWS V14.01,2013-02-28 22:30:00,
2013-02-28 15:31:00,41.9,12.0,30.14,WSW,253,0.0,0.0,29,0.00,,---,0.00,VWS V14.01,2013-02-28 22:31:00,
2013-02-28 15:33:00,41.9,12.0,30.14,SW,235,2.2,2.2,29,0.00,,---,0.00,VWS V14.01,2013-02-28 22:33:00,
2013-02-28 15:34:00,41.9,12.0,30.14,SSW,211,2.2,3.6,29,0.00,,---,0.00,VWS V14.01,2013-02-28 22:34:00,
2013-02-28 15:35:00,41.9,12.0,30.14,SSW,211,3.1,3.6,29,0.00,,---,0.00,VWS V14.01,2013-02-28 22:35:00,
2013-02-28 15:36:00,41.9,12.0,30.14,SSW,211,0.0,3.6,29,0.00,,---,0.00,VWS V14.01,2013-02-28 22:36:00,
2013-02-28 15:39:00,42.1,12.1,30.14,SSW,211,0.0,3.6,29,0.00,,---,0.00,VWS V14.01,2013-02-28 22:39:00,
2013-02-28 15:40:00,42.1,12.1,30.14,SW,216,0.0,3.6,29,0.00,,---,0.00,VWS V14.01,2013-02-28 22:40:00,
2013-02-28 15:41:00,42.1,12.1,30.14,SW,236,2.7,3.6,29,0.00,,---,0.00,VWS V14.01,2013-02-28 22:41:00,
2013-02-28 15:44:00,42.3,12.3,30.14,SW,236,0.0,3.6,29,0.00,,---,0.00,VWS V14.01,2013-02-28 22:44:00,
2013-02-28 15:45:00,42.3,12.3,30.14,WSW,237,2.7,2.7,29,0.00,,---,0.00,VWS V14.01,2013-02-28 22:45:00,
2013-02-28 15:46:00,42.3,12.3,30.14,WNW,283,3.1,3.1,29,0.00,,---,0.00,VWS V14.01,2013-02-28 22:46:00,
2013-02-28 15:49:00,42.3,12.3,30.14,West,275,2.2,3.1,29,0.00,,---,0.00,VWS V14.01,2013-02-28 22:49:00,
2013-02-28 15:50:00,42.1,12.1,30.14,West,275,0.0,3.1,29,0.00,,---,0.00,VWS V14.01,2013-02-28 22:50:00,
2013-02-28 15:51:00,42.1,12.1,30.14,SW,216,0.0,3.1,29,0.00,,---,0.00,VWS V14.01,2013-02-28 22:51:00,
2013-02-28 15:54:00,42.1,12.1,30.14,WSW,245,0.0,3.6,29,0.00,,---,0.00,VWS V14.01,2013-02-28 22:54:00,
2013-02-28 15:55:00,42.1,12.1,30.14,WSW,245,2.2,3.6,29,0.00,,---,0.00,VWS V14.01,2013-02-28 22:55:00,
2013-02-28 15:56:00,41.9,12.0,30.14,WSW,244,0.0,3.6,29,0.00,,---,0.00,VWS V14.01,2013-02-28 22:56:00,
2013-02-28 15:59:00,41.9,12.0,30.17,WSW,245,0.0,3.6,29,0.00,,---,0.00,VWS V14.01,2013-02-28 22:59:00,
2013-02-28 16:00:00,41.9,12.0,30.17,WSW,245,0.0,0.0,29,0.00,,---,0.00,VWS V14.01,2013-02-28 23:00:00,
2013-02-28 16:01:00,41.7,11.8,30.17,WSW,245,2.2,2.2,29,0.00,,---,0.00,VWS V14.01,2013-02-28 23:01:00,
2013-02-28 16:02:00,41.7,11.8,30.17,WSW,246,2.2,2.2,29,0.00,,---,0.00,VWS V14.01,2013-02-28 23:02:00,
2013-02-28 16:04:00,41.7,11.8,30.17,WSW,257,2.2,2.7,29,0.00,,---,0.00,VWS V14.01,2013-02-28 23:04:00,
2013-02-28 16:06:00,41.7,11.8,30.17,West,270,2.7,2.7,29,0.00,,---,0.00,VWS V14.01,2013-02-28 23:06:00,
2013-02-28 16:07:00,41.7,11.8,30.17,West,279,0.0,2.7,29,0.00,,---,0.00,VWS V14.01,2013-02-28 23:07:00,
2013-02-28 16:09:00,41.5,11.7,30.17,WNW,296,2.7,3.6,29,0.00,,---,0.00,VWS V14.01,2013-02-28 23:09:00,
2013-02-28 16:11:00,41.5,11.7,30.17,WNW,296,2.2,3.6,29,0.00,,---,0.00,VWS V14.01,2013-02-28 23:11:00,
2013-02-28 16:12:00,41.4,11.5,30.17,WNW,296,0.0,3.6,29,0.00,,---,0.00,VWS V14.01,2013-02-28 23:12:00,
2013-02-28 16:14:00,41.4,11.5,30.17,WNW,296,0.0,3.6,29,0.00,,---,0.00,VWS V14.01,2013-02-28 23:14:00,
2013-02-28 16:16:00,41.2,11.4,30.17,WNW,296,2.7,2.7,29,0.00,,---,0.00,VWS V14.01,2013-02-28 23:16:00,
2013-02-28 16:17:00,41.2,11.4,30.17,WNW,296,0.0,2.7,29,0.00,,---,0.00,VWS V14.01,2013-02-28 23:17:00,
2013-02-28 16:20:00,41.2,11.4,30.17,WNW,296,0.0,2.7,29,0.00,,---,0.00,VWS V14.01,2013-02-28 23:20:00,
2013-02-28 16:21:00,41.2,11.4,30.17,WNW,296,0.0,2.7,29,0.00,,---,0.00,VWS V14.01,2013-02-28 23:21:00,
2013-02-28 16:22:00,41.2,11.4,30.17,WNW,296,0.0,2.7,29,0.00,,---,0.00,VWS V14.01,2013-02-28 23:22:00,
2013-02-28 16:25:00,41.2,11.4,30.17,WNW,296,0.0,2.7,29,0.00,,---,0.00,VWS V14.01,2013-02-28 23:25:00,
2013-02-28 16:26:00,41.0,11.2,30.17,WNW,296,0.0,2.7,29,0.00,,---,0.00,VWS V14.01,2013-02-28 23:26:00,
2013-02-28 16:27:00,41.0,11.2,30.17,WNW,296,0.0,2.7,29,0.00,,---,0.00,VWS V14.01,2013-02-28 23:27:00,
2013-02-28 16:30:00,41.0,11.2,30.17,NW,323,0.0,0.0,29,0.00,,---,0.00,VWS V14.01,2013-02-28 23:30:00,
2013-02-28 16:31:00,40.8,11.0,30.17,North,0,3.1,3.1,29,0.00,,---,0.00,VWS V14.01,2013-02-28 23:31:00,
2013-02-28 16:32:00,40.8,11.0,30.17,North,0,3.6,4.0,29,0.00,,---,0.00,VWS V14.01,2013-02-28 23:32:00,
2013-02-28 16:35:00,40.6,10.9,30.17,NNW,335,2.2,4.0,29,0.00,,---,0.00,VWS V14.01,2013-02-28 23:35:00,
2013-02-28 16:37:00,40.6,10.9,30.17,NNW,336,0.0,4.0,29,0.00,,---,0.00,VWS V14.01,2013-02-28 23:37:00,
2013-02-28 16:38:00,40.6,10.9,30.17,NNW,336,2.2,4.0,29,0.00,,---,0.00,VWS V14.01,2013-02-28 23:38:00,
2013-02-28 16:40:00,40.5,10.7,30.17,NNW,336,2.2,4.0,29,0.00,,---,0.00,VWS V14.01,2013-02-28 23:40:00,
2013-02-28 16:42:00,40.5,10.7,30.17,NNW,336,0.0,4.0,29,0.00,,---,0.00,VWS V14.01,2013-02-28 23:42:00,
2013-02-28 16:43:00,40.5,10.7,30.17,NNW,336,0.0,4.0,29,0.00,,---,0.00,VWS V14.01,2013-02-28 23:43:00,
2013-02-28 16:45:00,40.5,10.7,30.17,NNW,336,0.0,0.0,29,0.00,,---,0.00,VWS V14.01,2013-02-28 23:45:00,
2013-02-28 16:47:00,40.5,10.7,30.17,NNW,336,0.0,0.0,29,0.00,,---,0.00,VWS V14.01,2013-02-28 23:47:00,
2013-02-28 16:48:00,40.5,10.7,30.17,NNW,336,0.0,0.0,29,0.00,,---,0.00,VWS V14.01,2013-02-28 23:48:00,
2013-02-28 16:51:00,40.5,10.7,30.17,NNW,335,0.0,0.0,29,0.00,,---,0.00,VWS V14.01,2013-02-28 23:51:00,
2013-02-28 16:52:00,40.5,10.7,30.17,NNW,338,0.0,0.0,29,0.00,,---,0.00,VWS V14.01,2013-02-28 23:52:00,
2013-02-28 16:53:00,40.5,10.7,30.17,NNW,338,0.0,0.0,29,0.00,,---,0.00,VWS V14.01,2013-02-28 23:53:00,
2013-02-28 16:56:00,40.5,10.7,30.17,NNW,338,0.0,0.0,29,0.00,,---,0.00,VWS V14.01,2013-02-28 23:56:00,
2013-02-28 16:57:00,40.3,11.3,30.17,NNW,338,0.0,0.0,30,0.00,,---,0.00,VWS V14.01,2013-02-28 23:57:00,
2013-02-28 16:58:00,40.3,11.3,30.17,NNW,338,0.0,0.0,30,0.00,,---,0.00,VWS V14.01,2013-02-28 23:58:00,
2013-02-28 17:01:00,40.3,11.3,30.17,NNW,338,0.0,0.0,30,0.00,,---,0.00,VWS V14.01,2013-03-01 00:01:00,
2013-02-28 17:02:00,40.3,11.3,30.17,NNW,338,0.0,0.0,30,0.00,,---,0.00,VWS V14.01,2013-03-01 00:02:00,
2013-02-28 17:03:00,40.1,10.4,30.17,North,353,0.0,0.0,29,0.00,,---,0.00,VWS V14.01,2013-03-01 00:03:00,
2013-02-28 17:07:00,40.1,10.4,30.17,ENE,67,0.0,2.7,29,0.00,,---,0.00,VWS V14.01,2013-03-01 00:07:00,
2013-02-28 17:08:00,40.1,10.4,30.17,East,81,0.0,2.7,29,0.00,,---,0.00,VWS V14.01,2013-03-01 00:08:00,
2013-02-28 17:09:00,40.1,10.4,30.17,East,81,0.0,2.7,29,0.00,,---,0.00,VWS V14.01,2013-03-01 00:09:00,
2013-02-28 17:12:00,40.1,10.4,30.17,East,81,0.0,2.7,29,0.00,,---,0.00,VWS V14.01,2013-03-01 00:12:00,
2013-02-28 17:13:00,40.1,10.4,30.17,East,93,0.0,2.7,29,0.00,,---,0.00,VWS V14.01,2013-03-01 00:13:00,
2013-02-28 17:14:00,40.1,10.4,30.17,East,93,0.0,2.7,29,0.00,,---,0.00,VWS V14.01,2013-03-01 00:14:00,
2013-02-28 17:17:00,39.9,11.0,30.17,NNE,32,2.7,3.1,30,0.00,,---,0.00,VWS V14.01,2013-03-01 00:17:00,
2013-02-28 17:18:00,39.7,10.9,30.17,NNE,26,2.7,3.1,30,0.00,,---,0.00,VWS V14.01,2013-03-01 00:18:00,
2013-02-28 17:19:00,39.7,10.9,30.17,NNE,26,2.7,3.1,30,0.00,,---,0.00,VWS V14.01,2013-03-01 00:19:00,
2013-02-28 17:22:00,39.2,10.4,30.17,NNE,26,2.2,3.1,30,0.00,,---,0.00,VWS V14.01,2013-03-01 00:22:00,
2013-02-28 17:23:00,39.2,10.4,30.17,NNE,26,0.0,3.1,30,0.00,,---,0.00,VWS V14.01,2013-03-01 00:23:00,
2013-02-28 17:24:00,39.0,11.0,30.17,NNE,26,0.0,3.1,31,0.00,,---,0.00,VWS V14.01,2013-03-01 00:24:00,
2013-02-28 17:27:00,38.8,10.8,30.17,NNE,26,0.0,3.1,31,0.00,,---,0.00,VWS V14.01,2013-03-01 00:27:00,
2013-02-28 17:28:00,38.7,10.6,30.17,NNE,26,0.0,3.1,31,0.00,,---,0.00,VWS V14.01,2013-03-01 00:28:00,
2013-02-28 17:29:00,38.7,10.6,30.17,NNE,26,0.0,3.1,31,0.00,,---,0.00,VWS V14.01,2013-03-01 00:29:00,
2013-02-28 17:30:00,38.7,10.6,30.17,NNE,26,0.0,3.1,31,0.00,,---,0.00,VWS V14.01,2013-03-01 00:30:00,
2013-02-28 17:32:00,38.5,10.5,30.17,NNE,26,0.0,0.0,31,0.00,,---,0.00,VWS V14.01,2013-03-01 00:32:00,
2013-02-28 17:33:00,38.5,10.5,30.17,NNE,26,0.0,0.0,31,0.00,,---,0.00,VWS V14.01,2013-03-01 00:33:00,
2013-02-28 17:34:00,38.5,10.5,30.17,NNE,26,0.0,0.0,31,0.00,,---,0.00,VWS V14.01,2013-03-01 00:34:00,
2013-02-28 17:35:00,38.3,10.3,30.17,NNE,26,0.0,0.0,31,0.00,,---,0.00,VWS V14.01,2013-03-01 00:35:00,
2013-02-28 17:37:00,38.1,10.2,30.17,NNE,26,0.0,0.0,31,0.00,,---,0.00,VWS V14.01,2013-03-01 00:37:00,
2013-02-28 17:38:00,38.1,10.2,30.17,NNE,26,0.0,0.0,31,0.00,,---,0.00,VWS V14.01,2013-03-01 00:38:00,
2013-02-28 17:39:00,38.1,10.2,30.17,NNE,26,0.0,0.0,31,0.00,,---,0.00,VWS V14.01,2013-03-01 00:39:00,
2013-02-28 17:40:00,38.1,10.2,30.17,NNE,26,0.0,0.0,31,0.00,,---,0.00,VWS V14.01,2013-03-01 00:40:00,
2013-02-28 17:42:00,37.9,10.0,30.17,NNE,26,0.0,0.0,31,0.00,,---,0.00,VWS V14.01,2013-03-01 00:42:00,
2013-02-28 17:43:00,37.9,10.0,30.17,NNE,26,0.0,0.0,31,0.00,,---,0.00,VWS V14.01,2013-03-01 00:43:00,
2013-02-28 17:44:00,37.9,10.0,30.17,NNE,26,0.0,0.0,31,0.00,,---,0.00,VWS V14.01,2013-03-01 00:44:00,
2013-02-28 17:46:00,37.8,9.9,30.17,NNE,26,0.0,0.0,31,0.00,,---,0.00,VWS V14.01,2013-03-01 00:46:00,
2013-02-28 17:48:00,37.6,9.7,30.17,NNE,26,0.0,0.0,31,0.00,,---,0.00,VWS V14.01,2013-03-01 00:48:00,
2013-02-28 17:49:00,37.6,9.7,30.17,NNE,26,0.0,0.0,31,0.00,,---,0.00,VWS V14.01,2013-03-01 00:49:00,
2013-02-28 17:51:00,37.6,9.7,30.17,NNE,26,0.0,0.0,31,0.00,,---,0.00,VWS V14.01,2013-03-01 00:51:00,
2013-02-28 17:53:00,37.4,9.5,30.17,NNE,26,0.0,0.0,31,0.00,,---,0.00,VWS V14.01,2013-03-01 00:53:00,
2013-02-28 17:54:00,37.2,10.1,30.17,NNE,26,0.0,0.0,32,0.00,,---,0.00,VWS V14.01,2013-03-01 00:54:00,
2013-02-28 17:56:00,37.2,10.1,30.17,NNE,26,0.0,0.0,32,0.00,,---,0.00,VWS V14.01,2013-03-01 00:56:00,
2013-02-28 17:58:00,37.0,9.9,30.17,NNE,26,0.0,0.0,32,0.00,,---,0.00,VWS V14.01,2013-03-01 00:58:00,
2013-02-28 17:59:00,37.0,9.9,30.17,NNE,26,0.0,0.0,32,0.00,,---,0.00,VWS V14.01,2013-03-01 00:59:00,
2013-02-28 18:01:00,37.0,9.9,30.17,NNE,26,0.0,0.0,32,0.00,,---,0.00,VWS V14.01,2013-03-01 01:01:00,
2013-02-28 18:03:00,36.9,9.8,30.17,NNE,26,0.0,0.0,32,0.00,,---,0.00,VWS V14.01,2013-03-01 01:03:00,
2013-02-28 18:04:00,36.9,9.8,30.17,NNE,26,0.0,0.0,32,0.00,,---,0.00,VWS V14.01,2013-03-01 01:04:00,
2013-02-28 18:06:00,36.7,9.6,30.17,NNE,26,0.0,0.0,32,0.00,,---,0.00,VWS V14.01,2013-03-01 01:06:00,
2013-02-28 18:08:00,36.7,9.6,30.17,NNE,26,0.0,0.0,32,0.00,,---,0.00,VWS V14.01,2013-03-01 01:08:00,
2013-02-28 18:09:00,36.7,9.6,30.17,NNE,26,0.0,0.0,32,0.00,,---,0.00,VWS V14.01,2013-03-01 01:09:00,
2013-02-28 18:11:00,36.3,9.3,30.17,NNE,26,0.0,0.0,32,0.00,,---,0.00,VWS V14.01,2013-03-01 01:11:00,
2013-02-28 18:13:00,36.3,9.3,30.17,NNE,26,0.0,0.0,32,0.00,,---,0.00,VWS V14.01,2013-03-01 01:13:00,
2013-02-28 18:14:00,36.1,9.1,30.17,NNE,26,0.0,0.0,32,0.00,,---,0.00,VWS V14.01,2013-03-01 01:14:00,
2013-02-28 18:16:00,36.1,9.8,30.17,NNE,26,0.0,0.0,33,0.00,,---,0.00,VWS V14.01,2013-03-01 01:16:00,
2013-02-28 18:19:00,36.0,9.7,30.17,NNE,26,0.0,0.0,33,0.00,,---,0.00,VWS V14.01,2013-03-01 01:19:00,
2013-02-28 18:21:00,36.0,10.3,30.17,NNE,26,0.0,0.0,34,0.00,,---,0.00,VWS V14.01,2013-03-01 01:21:00,
2013-02-28 18:24:00,35.8,10.2,30.17,NNE,26,0.0,0.0,34,0.00,,---,0.00,VWS V14.01,2013-03-01 01:24:00,
2013-02-28 18:25:00,35.8,10.2,30.17,NNE,26,0.0,0.0,34,0.00,,---,0.00,VWS V14.01,2013-03-01 01:25:00,
2013-02-28 18:27:00,35.8,10.2,30.17,NNE,26,0.0,0.0,34,0.00,,---,0.00,VWS V14.01,2013-03-01 01:27:00,
2013-02-28 18:29:00,35.8,10.2,30.17,NNE,26,0.0,0.0,34,0.00,,---,0.00,VWS V14.01,2013-03-01 01:29:00,
2013-02-28 18:30:00,35.8,10.2,30.17,NNE,26,0.0,0.0,34,0.00,,---,0.00,VWS V14.01,2013-03-01 01:30:00,
2013-02-28 18:32:00,35.8,10.2,30.17,NNE,26,0.0,0.0,34,0.00,,---,0.00,VWS V14.01,2013-03-01 01:32:00,
2013-02-28 18:34:00,35.8,10.8,30.17,NNE,26,0.0,0.0,35,0.00,,---,0.00,VWS V14.01,2013-03-01 01:34:00,
2013-02-28 18:35:00,35.8,10.8,30.17,NNE,26,0.0,0.0,35,0.00,,---,0.00,VWS V14.01,2013-03-01 01:35:00,
2013-02-28 18:37:00,35.6,10.7,30.17,NNE,26,0.0,0.0,35,0.00,,---,0.00,VWS V14.01,2013-03-01 01:37:00,
2013-02-28 18:40:00,35.6,10.7,30.17,NNE,26,0.0,0.0,35,0.00,,---,0.00,VWS V14.01,2013-03-01 01:40:00,
2013-02-28 18:42:00,35.6,10.0,30.17,NNE,26,0.0,0.0,34,0.00,,---,0.00,VWS V14.01,2013-03-01 01:42:00,
2013-02-28 18:45:00,35.8,10.8,30.17,NNE,26,0.0,0.0,35,0.00,,---,0.00,VWS V14.01,2013-03-01 01:45:00,
2013-02-28 18:46:00,35.8,10.8,30.17,NNE,26,0.0,0.0,35,0.00,,---,0.00,VWS V14.01,2013-03-01 01:46:00,
2013-02-28 18:47:00,35.8,10.8,30.17,NNE,26,0.0,0.0,35,0.00,,---,0.00,VWS V14.01,2013-03-01 01:47:00,
2013-02-28 18:50:00,35.8,10.8,30.17,NNE,26,0.0,0.0,35,0.00,,---,0.00,VWS V14.01,2013-03-01 01:50:00,
2013-02-28 18:51:00,35.8,10.8,30.17,NNE,26,0.0,0.0,35,0.00,,---,0.00,VWS V14.01,2013-03-01 01:51:00,
2013-02-28 18:52:00,35.8,10.8,30.17,NNE,26,0.0,0.0,35,0.00,,---,0.00,VWS V14.01,2013-03-01 01:52:00,
2013-02-28 18:55:00,35.6,10.7,30.17,NNE,26,0.0,0.0,35,0.00,,---,0.00,VWS V14.01,2013-03-01 01:55:00,
2013-02-28 18:56:00,35.6,10.7,30.17,NNE,26,0.0,0.0,35,0.00,,---,0.00,VWS V14.01,2013-03-01 01:56:00,
2013-02-28 18:57:00,35.6,10.7,30.17,NNE,26,0.0,0.0,35,0.00,,---,0.00,VWS V14.01,2013-03-01 01:57:00,
2013-02-28 19:00:00,35.4,11.1,30.17,SSE,147,2.7,2.7,36,0.00,,---,0.00,VWS V14.01,2013-03-01 02:00:00,
2013-02-28 19:01:00,35.4,11.1,30.17,SSE,147,2.2,2.7,36,0.00,,---,0.00,VWS V14.01,2013-03-01 02:01:00,
2013-02-28 19:02:00,35.4,11.1,30.17,SSW,199,3.1,3.1,36,0.00,,---,0.00,VWS V14.01,2013-03-01 02:02:00,
2013-02-28 19:06:00,35.6,11.3,30.17,SSW,196,2.2,3.6,36,0.00,,---,0.00,VWS V14.01,2013-03-01 02:06:00,
2013-02-28 19:07:00,35.6,11.3,30.17,SSW,196,2.7,3.6,36,0.00,,---,0.00,VWS V14.01,2013-03-01 02:07:00,
2013-02-28 19:11:00,35.6,10.7,30.17,South,189,2.7,3.6,35,0.00,,---,0.00,VWS V14.01,2013-03-01 02:11:00,
2013-02-28 19:12:00,35.6,10.7,30.17,South,191,2.7,3.6,35,0.00,,---,0.00,VWS V14.01,2013-03-01 02:12:00,
2013-02-28 19:16:00,35.6,11.3,30.17,South,191,0.0,2.2,36,0.00,,---,0.00,VWS V14.01,2013-03-01 02:16:00,
2013-02-28 19:17:00,35.6,11.3,30.17,South,191,0.0,2.2,36,0.00,,---,0.00,VWS V14.01,2013-03-01 02:17:00,
2013-02-28 19:21:00,35.4,11.1,30.17,South,191,0.0,3.1,36,0.00,,---,0.00,VWS V14.01,2013-03-01 02:21:00,
2013-02-28 19:22:00,35.4,11.1,30.17,South,191,2.7,3.1,36,0.00,,---,0.00,VWS V14.01,2013-03-01 02:22:00,
2013-02-28 19:23:00,35.4,11.1,30.17,SSW,194,3.6,3.6,36,0.00,,---,0.00,VWS V14.01,2013-03-01 02:23:00,
2013-02-28 19:26:00,35.2,11.0,30.17,SSW,194,2.7,3.6,36,0.00,,---,0.00,VWS V14.01,2013-03-01 02:26:00,
2013-02-28 19:27:00,35.2,11.0,30.17,SSW,194,2.7,3.6,36,0.00,,---,0.00,VWS V14.01,2013-03-01 02:27:00,
2013-02-28 19:28:00,35.2,11.0,30.17,SSW,194,2.7,3.6,36,0.00,,---,0.00,VWS V14.01,2013-03-01 02:28:00,
2013-02-28 19:31:00,35.2,11.0,30.17,SSW,192,2.7,3.1,36,0.00,,---,0.00,VWS V14.01,2013-03-01 02:31:00,
2013-02-28 19:32:00,35.2,11.0,30.17,SSW,192,2.7,3.1,36,0.00,,---,0.00,VWS V14.01,2013-03-01 02:32:00,
2013-02-28 19:33:00,35.2,11.0,30.17,SSW,193,2.7,3.1,36,0.00,,---,0.00,VWS V14.01,2013-03-01 02:33:00,
2013-02-28 19:37:00,35.4,11.1,30.17,SSW,193,2.2,3.1,36,0.00,,---,0.00,VWS V14.01,2013-03-01 02:37:00,
2013-02-28 19:38:00,35.4,11.1,30.17,SSW,193,2.7,3.1,36,0.00,,---,0.00,VWS V14.01,2013-03-01 02:38:00,
2013-02-28 19:42:00,35.4,11.1,30.17,SSW,193,2.7,3.1,36,0.00,,---,0.00,VWS V14.01,2013-03-01 02:42:00,
2013-02-28 19:43:00,35.4,11.1,30.17,SSW,193,0.0,3.1,36,0.00,,---,0.00,VWS V14.01,2013-03-01 02:43:00,
2013-02-28 19:44:00,35.4,11.1,30.17,SSW,193,2.7,3.1,36,0.00,,---,0.00,VWS V14.01,2013-03-01 02:44:00,
2013-02-28 19:47:00,35.2,11.0,30.17,SSW,193,0.0,2.2,36,0.00,,---,0.00,VWS V14.01,2013-03-01 02:47:00,
2013-02-28 19:48:00,35.2,11.0,30.17,SSW,193,0.0,2.2,36,0.00,,---,0.00,VWS V14.01,2013-03-01 02:48:00,
2013-02-28 19:49:00,35.2,11.0,30.17,SSW,193,0.0,2.2,36,0.00,,---,0.00,VWS V14.01,2013-03-01 02:49:00,
2013-02-28 19:52:00,35.2,11.0,30.17,SSW,193,0.0,2.2,36,0.00,,---,0.00,VWS V14.01,2013-03-01 02:52:00,
2013-02-28 19:54:00,35.2,11.0,30.17,SSW,193,0.0,2.2,36,0.00,,---,0.00,VWS V14.01,2013-03-01 02:54:00,
2013-02-28 19:57:00,35.1,10.8,30.17,SSW,193,0.0,2.2,36,0.00,,---,0.00,VWS V14.01,2013-03-01 02:57:00,
2013-02-28 19:58:00,34.9,10.6,30.17,SSW,193,0.0,2.2,36,0.00,,---,0.00,VWS V14.01,2013-03-01 02:58:00,
2013-02-28 19:59:00,34.9,10.6,30.17,SSW,193,0.0,2.2,36,0.00,,---,0.00,VWS V14.01,2013-03-01 02:59:00,
2013-02-28 20:00:00,34.9,10.6,30.17,SSW,193,0.0,0.0,36,0.00,,---,0.00,VWS V14.01,2013-03-01 03:00:00,
2013-02-28 20:02:00,34.9,10.6,30.17,SSW,193,0.0,0.0,36,0.00,,---,0.00,VWS V14.01,2013-03-01 03:02:00,
2013-02-28 20:03:00,34.9,10.6,30.17,SSW,193,0.0,0.0,36,0.00,,---,0.00,VWS V14.01,2013-03-01 03:03:00,
2013-02-28 20:04:00,34.9,11.3,30.17,SSW,193,2.2,2.7,37,0.00,,---,0.00,VWS V14.01,2013-03-01 03:04:00,
2013-02-28 20:05:00,34.9,11.3,30.17,SSW,193,0.0,2.7,37,0.00,,---,0.00,VWS V14.01,2013-03-01 03:05:00,
2013-02-28 20:07:00,34.9,11.3,30.17,SSW,193,0.0,2.7,37,0.00,,---,0.00,VWS V14.01,2013-03-01 03:07:00,
2013-02-28 20:08:00,34.9,11.3,30.17,SSW,193,0.0,2.7,37,0.00,,---,0.00,VWS V14.01,2013-03-01 03:08:00,
2013-02-28 20:09:00,34.9,11.3,30.17,SSW,193,0.0,2.7,37,0.00,,---,0.00,VWS V14.01,2013-03-01 03:09:00,
2013-02-28 20:10:00,34.9,11.3,30.17,SSW,192,0.0,2.7,37,0.00,,---,0.00,VWS V14.01,2013-03-01 03:10:00,
2013-02-28 20:13:00,34.7,11.1,30.17,SSW,193,0.0,2.7,37,0.00,,---,0.00,VWS V14.01,2013-03-01 03:13:00,
2013-02-28 20:14:00,34.5,10.9,30.20,SSW,193,0.0,2.7,37,0.00,,---,0.00,VWS V14.01,2013-03-01 03:14:00,
2013-02-28 20:15:00,34.5,10.9,30.20,SSW,193,0.0,0.0,37,0.00,,---,0.00,VWS V14.01,2013-03-01 03:15:00,
2013-02-28 20:18:00,34.5,10.9,30.20,SSW,193,0.0,0.0,37,0.00,,---,0.00,VWS V14.01,2013-03-01 03:18:00,
2013-02-28 20:19:00,34.5,10.9,30.20,SSW,193,0.0,0.0,37,0.00,,---,0.00,VWS V14.01,2013-03-01 03:19:00,
2013-02-28 20:21:00,34.5,10.9,30.20,SSW,193,0.0,0.0,37,0.00,,---,0.00,VWS V14.01,2013-03-01 03:21:00,
2013-02-28 20:23:00,34.5,10.9,30.20,SSW,193,0.0,0.0,37,0.00,,---,0.00,VWS V14.01,2013-03-01 03:23:00,
2013-02-28 20:24:00,34.5,11.5,30.20,SSW,193,0.0,0.0,38,0.00,,---,0.00,VWS V14.01,2013-03-01 03:24:00,
2013-02-28 20:26:00,34.5,11.5,30.20,SSW,193,0.0,0.0,38,0.00,,---,0.00,VWS V14.01,2013-03-01 03:26:00,
2013-02-28 20:28:00,34.3,11.4,30.20,SSW,193,0.0,0.0,38,0.00,,---,0.00,VWS V14.01,2013-03-01 03:28:00,
2013-02-28 20:29:00,34.3,11.4,30.20,SSW,193,0.0,0.0,38,0.00,,---,0.00,VWS V14.01,2013-03-01 03:29:00,
2013-02-28 20:31:00,34.5,10.9,30.20,SSW,193,0.0,0.0,37,0.00,,---,0.00,VWS V14.01,2013-03-01 03:31:00,
2013-02-28 20:33:00,34.5,11.5,30.20,SSW,193,0.0,0.0,38,0.00,,---,0.00,VWS V14.01,2013-03-01 03:33:00,
2013-02-28 20:34:00,34.5,11.5,30.20,SSW,193,0.0,0.0,38,0.00,,---,0.00,VWS V14.01,2013-03-01 03:34:00,
2013-02-28 20:36:00,34.5,11.5,30.20,SSW,193,0.0,0.0,38,0.00,,---,0.00,VWS V14.01,2013-03-01 03:36:00,
2013-02-28 20:38:00,34.5,11.5,30.20,SSW,193,0.0,0.0,38,0.00,,---,0.00,VWS V14.01,2013-03-01 03:38:00,
2013-02-28 20:40:00,34.7,11.7,30.20,SSW,193,0.0,0.0,38,0.00,,---,0.00,VWS V14.01,2013-03-01 03:40:00,
2013-02-28 20:41:00,34.7,11.7,30.20,SSW,193,0.0,0.0,38,0.00,,---,0.00,VWS V14.01,2013-03-01 03:41:00,
2013-02-28 20:43:00,34.7,11.7,30.20,SSW,193,0.0,0.0,38,0.00,,---,0.00,VWS V14.01,2013-03-01 03:43:00,
2013-02-28 20:44:00,34.9,12.4,30.20,SSW,193,0.0,0.0,39,0.00,,---,0.00,VWS V14.01,2013-03-01 03:44:00,
2013-02-28 20:45:00,34.9,13.0,30.20,SSW,193,0.0,0.0,40,0.00,,---,0.00,VWS V14.01,2013-03-01 03:45:00,
2013-02-28 20:46:00,34.9,12.4,30.20,SSW,193,0.0,0.0,39,0.00,,---,0.00,VWS V14.01,2013-03-01 03:46:00,
2013-02-28 20:48:00,34.9,12.4,30.20,SSW,193,0.0,0.0,39,0.00,,---,0.00,VWS V14.01,2013-03-01 03:48:00,
2013-02-28 20:49:00,35.1,12.6,30.20,SSW,193,0.0,0.0,39,0.00,,---,0.00,VWS V14.01,2013-03-01 03:49:00,
2013-02-28 20:50:00,35.1,12.0,30.20,SSW,193,0.0,0.0,38,0.00,,---,0.00,VWS V14.01,2013-03-01 03:50:00,
2013-02-28 20:51:00,35.2,12.2,30.20,SSW,193,0.0,0.0,38,0.00,,---,0.00,VWS V14.01,2013-03-01 03:51:00,
2013-02-28 20:53:00,35.4,12.4,30.20,SSW,193,2.7,2.7,38,0.00,,---,0.00,VWS V14.01,2013-03-01 03:53:00,
2013-02-28 20:54:00,35.4,13.5,30.20,SSW,193,2.2,2.7,40,0.00,,---,0.00,VWS V14.01,2013-03-01 03:54:00,
2013-02-28 20:55:00,35.4,13.5,30.20,SSW,193,0.0,2.7,40,0.00,,---,0.00,VWS V14.01,2013-03-01 03:55:00,
2013-02-28 20:57:00,35.4,13.5,30.20,SSW,193,0.0,2.7,40,0.00,,---,0.00,VWS V14.01,2013-03-01 03:57:00,
2013-02-28 20:58:00,35.4,13.5,30.20,SSW,193,0.0,2.7,40,0.00,,---,0.00,VWS V14.01,2013-03-01 03:58:00,
2013-02-28 20:59:00,35.4,13.5,30.20,SSW,193,0.0,2.7,40,0.00,,---,0.00,VWS V14.01,2013-03-01 03:59:00,
2013-02-28 21:00:00,35.4,13.5,30.20,SSW,200,2.2,2.7,40,0.00,,---,0.00,VWS V14.01,2013-03-01 04:00:00,
2013-02-28 21:02:00,35.4,13.5,30.20,SSW,200,2.7,2.7,40,0.00,,---,0.00,VWS V14.01,2013-03-01 04:02:00,
2013-02-28 21:03:00,35.6,13.7,30.20,SSW,200,0.0,2.7,40,0.00,,---,0.00,VWS V14.01,2013-03-01 04:03:00,
2013-02-28 21:04:00,35.6,13.7,30.20,SSW,200,2.2,2.7,40,0.00,,---,0.00,VWS V14.01,2013-03-01 04:04:00,
2013-02-28 21:05:00,35.6,14.2,30.20,SSW,200,0.0,2.7,41,0.00,,---,0.00,VWS V14.01,2013-03-01 04:05:00,
2013-02-28 21:07:00,35.8,14.9,30.20,SSW,200,0.0,2.7,42,0.00,,---,0.00,VWS V14.01,2013-03-01 04:07:00,
2013-02-28 21:08:00,35.8,14.9,30.20,SSW,200,0.0,2.7,42,0.00,,---,0.00,VWS V14.01,2013-03-01 04:08:00,
2013-02-28 21:09:00,35.8,14.9,30.20,SSW,200,0.0,2.7,42,0.00,,---,0.00,VWS V14.01,2013-03-01 04:09:00,
2013-02-28 21:10:00,35.8,15.5,30.20,SSW,200,0.0,2.7,43,0.00,,---,0.00,VWS V14.01,2013-03-01 04:10:00,
2013-02-28 21:12:00,35.6,15.3,30.20,SSW,200,0.0,2.7,43,0.00,,---,0.00,VWS V14.01,2013-03-01 04:12:00,
2013-02-28 21:13:00,35.6,15.3,30.20,SSW,200,0.0,2.7,43,0.00,,---,0.00,VWS V14.01,2013-03-01 04:13:00,
2013-02-28 21:14:00,35.6,15.3,30.20,SSW,200,0.0,2.7,43,0.00,,---,0.00,VWS V14.01,2013-03-01 04:14:00,
2013-02-28 21:15:00,35.6,15.9,30.20,SSW,200,0.0,0.0,44,0.00,,---,0.00,VWS V14.01,2013-03-01 04:15:00,
2013-02-28 21:17:00,35.6,16.4,30.20,SSW,201,0.0,0.0,45,0.00,,---,0.00,VWS V14.01,2013-03-01 04:17:00,
2013-02-28 21:19:00,35.4,16.2,30.20,SSW,200,0.0,0.0,45,0.00,,---,0.00,VWS V14.01,2013-03-01 04:19:00,
2013-02-28 21:20:00,35.2,16.0,30.20,SSW,200,0.0,0.0,45,0.00,,---,0.00,VWS V14.01,2013-03-01 04:20:00,
2013-02-28 21:22:00,35.1,15.9,30.20,SSW,200,0.0,0.0,45,0.00,,---,0.00,VWS V14.01,2013-03-01 04:22:00,
2013-02-28 21:24:00,35.1,15.9,30.20,SSW,200,0.0,0.0,45,0.00,,---,0.00,VWS V14.01,2013-03-01 04:24:00,
2013-02-28 21:26:00,34.7,16.0,30.20,SSW,200,0.0,0.0,46,0.00,,---,0.00,VWS V14.01,2013-03-01 04:26:00,
2013-02-28 21:28:00,34.5,15.9,30.20,SSW,200,0.0,0.0,46,0.00,,---,0.00,VWS V14.01,2013-03-01 04:28:00,
2013-02-28 21:29:00,34.3,15.7,30.20,SSW,200,0.0,0.0,46,0.00,,---,0.00,VWS V14.01,2013-03-01 04:29:00,
2013-02-28 21:31:00,34.3,15.7,30.20,SSW,200,0.0,0.0,46,0.00,,---,0.00,VWS V14.01,2013-03-01 04:31:00,
2013-02-28 21:33:00,34.3,16.7,30.20,SSW,200,0.0,0.0,48,0.00,,---,0.00,VWS V14.01,2013-03-01 04:33:00,
2013-02-28 21:34:00,34.2,17.5,30.20,SSW,200,2.7,2.7,50,0.00,,---,0.00,VWS V14.01,2013-03-01 04:34:00,
2013-02-28 21:36:00,34.2,17.5,30.20,SSW,200,0.0,3.1,50,0.00,,---,0.00,VWS V14.01,2013-03-01 04:36:00,
2013-02-28 21:38:00,34.0,17.3,30.20,SSW,200,0.0,3.1,50,0.00,,---,0.00,VWS V14.01,2013-03-01 04:38:00,
2013-02-28 21:39:00,34.0,17.3,30.20,SSW,200,0.0,3.1,50,0.00,,---,0.00,VWS V14.01,2013-03-01 04:39:00,
2013-02-28 21:41:00,33.8,17.6,30.20,SSW,200,0.0,3.1,51,0.00,,---,0.00,VWS V14.01,2013-03-01 04:41:00,
2013-02-28 21:43:00,33.8,18.0,30.20,SSW,200,0.0,3.1,52,0.00,,---,0.00,VWS V14.01,2013-03-01 04:43:00,
2013-02-28 21:44:00,33.8,18.5,30.20,SSW,200,0.0,3.1,53,0.00,,---,0.00,VWS V14.01,2013-03-01 04:44:00,
2013-02-28 21:46:00,33.6,18.8,30.20,SSW,200,0.0,0.0,54,0.00,,---,0.00,VWS V14.01,2013-03-01 04:46:00,
2013-02-28 21:48:00,33.4,18.6,30.20,SSW,200,0.0,0.0,54,0.00,,---,0.00,VWS V14.01,2013-03-01 04:48:00,
2013-02-28 21:49:00,33.4,19.0,30.20,SSW,200,0.0,0.0,55,0.00,,---,0.00,VWS V14.01,2013-03-01 04:49:00,
2013-02-28 21:50:00,33.4,19.0,30.20,SSW,200,0.0,0.0,55,0.00,,---,0.00,VWS V14.01,2013-03-01 04:50:00,
2013-02-28 21:51:00,33.3,19.3,30.20,SSW,200,0.0,0.0,56,0.00,,---,0.00,VWS V14.01,2013-03-01 04:51:00,
2013-02-28 21:54:00,33.3,19.7,30.20,SSW,200,0.0,0.0,57,0.00,,---,0.00,VWS V14.01,2013-03-01 04:54:00,
2013-02-28 21:55:00,33.3,19.7,30.20,SSW,200,0.0,0.0,57,0.00,,---,0.00,VWS V14.01,2013-03-01 04:55:00,
2013-02-28 21:56:00,33.3,19.7,30.20,SSW,200,0.0,0.0,57,0.00,,---,0.00,VWS V14.01,2013-03-01 04:56:00,
2013-02-28 21:59:00,33.3,20.1,30.20,SSW,200,3.1,3.1,58,0.00,,---,0.00,VWS V14.01,2013-03-01 04:59:00,
2013-02-28 22:00:00,33.3,20.5,30.20,SSW,200,2.7,3.1,59,0.00,,---,0.00,VWS V14.01,2013-03-01 05:00:00,
2013-02-28 22:05:00,33.6,21.2,30.20,SSW,200,2.2,3.1,60,0.00,,---,0.00,VWS V14.01,2013-03-01 05:05:00,
2013-02-28 22:06:00,33.6,21.6,30.20,SSW,200,3.1,3.1,61,0.00,,---,0.00,VWS V14.01,2013-03-01 05:06:00,
2013-02-28 22:10:00,33.8,21.8,30.20,SSW,200,3.1,3.1,61,0.00,,---,0.00,VWS V14.01,2013-03-01 05:10:00,
2013-02-28 22:11:00,33.8,21.8,30.20,SSW,200,2.7,3.1,61,0.00,,---,0.00,VWS V14.01,2013-03-01 05:11:00,
2013-02-28 22:15:00,34.0,22.4,30.20,SSW,200,2.2,2.2,62,0.00,,---,0.00,VWS V14.01,2013-03-01 05:15:00,
2013-02-28 22:16:00,34.0,22.4,30.20,SSW,199,2.7,2.7,62,0.00,,---,0.00,VWS V14.01,2013-03-01 05:16:00,
2013-02-28 22:20:00,33.8,22.5,30.20,SSW,206,3.1,4.0,63,0.00,,---,0.00,VWS V14.01,2013-03-01 05:20:00,
2013-02-28 22:21:00,33.8,22.5,30.20,SSW,206,3.1,4.0,63,0.00,,---,0.00,VWS V14.01,2013-03-01 05:21:00,
2013-02-28 22:25:00,34.0,23.1,30.20,SSW,207,2.2,4.0,64,0.00,,---,0.00,VWS V14.01,2013-03-01 05:25:00,
2013-02-28 22:26:00,34.2,23.3,30.20,SSW,207,2.7,4.0,64,0.00,,---,0.00,VWS V14.01,2013-03-01 05:26:00,
2013-02-28 22:30:00,34.2,22.9,30.20,SSW,208,2.7,2.7,63,0.00,,---,0.00,VWS V14.01,2013-03-01 05:30:00,
2013-02-28 22:31:00,34.2,22.9,30.20,SSW,209,0.0,2.7,63,0.00,,---,0.00,VWS V14.01,2013-03-01 05:31:00,
2013-02-28 22:36:00,34.3,22.3,30.20,SSW,208,0.0,3.1,61,0.00,,---,0.00,VWS V14.01,2013-03-01 05:36:00,
2013-02-28 22:41:00,34.3,22.3,30.20,SSW,208,0.0,3.1,61,0.00,,---,0.00,VWS V14.01,2013-03-01 05:41:00,
2013-02-28 22:42:00,34.5,22.5,30.20,SSW,208,2.7,3.1,61,0.00,,---,0.00,VWS V14.01,2013-03-01 05:42:00,
2013-02-28 22:46:00,34.3,19.9,30.17,SSW,212,0.0,2.7,55,0.00,,---,0.00,VWS V14.01,2013-03-01 05:46:00,
2013-02-28 22:47:00,34.3,19.4,30.17,WSW,255,2.7,3.1,54,0.00,,---,0.00,VWS V14.01,2013-03-01 05:47:00,
2013-02-28 22:51:00,34.3,19.0,30.17,West,275,3.1,3.6,53,0.00,,---,0.00,VWS V14.01,2013-03-01 05:51:00,
2013-02-28 22:52:00,34.3,18.5,30.17,West,275,0.0,3.6,52,0.00,,---,0.00,VWS V14.01,2013-03-01 05:52:00,
2013-02-28 22:56:00,34.3,18.5,30.17,SSW,210,3.1,4.0,52,0.00,,---,0.00,VWS V14.01,2013-03-01 05:56:00,
2013-02-28 22:57:00,34.3,18.1,30.17,SW,220,3.1,4.0,51,0.00,,---,0.00,VWS V14.01,2013-03-01 05:57:00,
2013-02-28 22:58:00,34.3,18.5,30.17,SW,223,2.7,4.0,52,0.00,,---,0.00,VWS V14.01,2013-03-01 05:58:00,
2013-02-28 23:01:00,34.5,18.3,30.17,SSW,196,5.4,5.8,51,0.00,,---,0.00,VWS V14.01,2013-03-01 06:01:00,
2013-02-28 23:02:00,34.5,18.3,30.17,SSW,206,5.8,5.8,51,0.00,,---,0.00,VWS V14.01,2013-03-01 06:02:00,
2013-02-28 23:03:00,34.9,18.6,30.17,SSW,213,4.9,5.8,51,0.00,,---,0.00,VWS V14.01,2013-03-01 06:03:00,
2013-02-28 23:06:00,35.1,18.3,30.17,SSW,198,6.3,6.3,50,0.00,,---,0.00,VWS V14.01,2013-03-01 06:06:00,
2013-02-28 23:07:00,35.2,18.5,30.17,SSW,202,4.0,6.3,50,0.00,,---,0.00,VWS V14.01,2013-03-01 06:07:00,
2013-02-28 23:08:00,35.4,18.6,30.17,SW,217,4.0,6.3,50,0.00,,---,0.00,VWS V14.01,2013-03-01 06:08:00,
2013-02-28 23:12:00,35.8,18.0,30.17,SSW,207,5.4,6.3,48,0.00,,---,0.00,VWS V14.01,2013-03-01 06:12:00,
2013-02-28 23:13:00,35.8,18.0,30.17,SSW,206,5.4,6.3,48,0.00,,---,0.00,VWS V14.01,2013-03-01 06:13:00,
2013-02-28 23:17:00,36.1,17.9,30.14,SSW,204,5.4,5.8,47,0.00,,---,0.00,VWS V14.01,2013-03-01 06:17:00,
2013-02-28 23:18:00,36.3,17.5,30.14,SSW,202,4.0,7.6,46,0.00,,---,0.00,VWS V14.01,2013-03-01 06:18:00,
2013-02-28 23:22:00,36.3,17.5,30.14,SSW,206,3.6,7.6,46,0.00,,---,0.00,VWS V14.01,2013-03-01 06:22:00,
2013-02-28 23:23:00,36.5,17.7,30.14,SSW,206,3.1,7.6,46,0.00,,---,0.00,VWS V14.01,2013-03-01 06:23:00,
2013-02-28 23:24:00,36.5,17.2,30.14,SSW,200,3.6,7.6,45,0.00,,---,0.00,VWS V14.01,2013-03-01 06:24:00,
2013-02-28 23:27:00,36.7,17.4,30.14,SSW,203,3.6,7.6,45,0.00,,---,0.00,VWS V14.01,2013-03-01 06:27:00,
2013-02-28 23:28:00,36.7,17.4,30.14,SSW,203,3.6,7.6,45,0.00,,---,0.00,VWS V14.01,2013-03-01 06:28:00,
2013-02-28 23:29:00,36.7,17.4,30.17,South,185,3.1,7.6,45,0.00,,---,0.00,VWS V14.01,2013-03-01 06:29:00,
2013-02-28 23:32:00,36.9,17.0,30.17,SSW,199,3.1,5.8,44,0.00,,---,0.00,VWS V14.01,2013-03-01 06:32:00,
2013-02-28 23:33:00,36.9,17.0,30.17,SSW,198,3.1,5.8,44,0.00,,---,0.00,VWS V14.01,2013-03-01 06:33:00,
2013-02-28 23:34:00,36.9,17.0,30.17,SSW,198,2.2,5.8,44,0.00,,---,0.00,VWS V14.01,2013-03-01 06:34:00,
2013-02-28 23:37:00,36.9,17.0,30.17,SSW,198,2.2,5.8,44,0.00,,---,0.00,VWS V14.01,2013-03-01 06:37:00,
2013-02-28 23:38:00,36.9,17.0,30.17,SSW,200,3.1,5.8,44,0.00,,---,0.00,VWS V14.01,2013-03-01 06:38:00,
2013-02-28 23:39:00,36.9,17.0,30.17,SSW,200,2.7,5.8,44,0.00,,---,0.00,VWS V14.01,2013-03-01 06:39:00,
2013-02-28 23:42:00,36.9,17.0,30.17,SSW,200,2.2,5.8,44,0.00,,---,0.00,VWS V14.01,2013-03-01 06:42:00,
2013-02-28 23:43:00,37.0,17.2,30.17,SSW,200,2.7,5.8,44,0.00,,---,0.00,VWS V14.01,2013-03-01 06:43:00,
2013-02-28 23:44:00,36.9,17.0,30.17,SSW,201,3.1,5.8,44,0.00,,---,0.00,VWS V14.01,2013-03-01 06:44:00,
2013-02-28 23:48:00,36.9,17.0,30.17,SSW,205,3.6,4.0,44,0.00,,---,0.00,VWS V14.01,2013-03-01 06:48:00,
2013-02-28 23:49:00,36.9,17.0,30.17,SSW,207,4.9,5.4,44,0.00,,---,0.00,VWS V14.01,2013-03-01 06:49:00,
2013-02-28 23:53:00,37.0,17.2,30.17,SSW,196,5.4,5.4,44,0.00,,---,0.00,VWS V14.01,2013-03-01 06:53:00,
2013-02-28 23:54:00,37.0,16.6,30.17,SSW,204,3.6,5.4,43,0.00,,---,0.00,VWS V14.01,2013-03-01 06:54:00,
2013-02-28 23:58:00,37.2,16.8,30.17,SSW,192,3.6,5.4,43,0.00,,---,0.00,VWS V14.01,2013-03-01 06:58:00,
2013-02-28 23:59:00,37.4,17.0,30.17,SSW,193,0.0,5.4,43,0.00,,---,0.00,VWS V14.01,2013-03-01 06:59:00,